Wetterdaten: Freitag, 31.01.2014
Datum Zeit Temp. Aussen +5cm Feuchte Auss Luftdruck Regen Sonnenschein Regendauer UV Solar Windben
31.01.2014 00:00 1,0 C -0,6 C 83 % 1006,6 hPa 0,0 l/m 0 min 0 min 0,0 UV-I 0 W/m 0,0 km/h (0 Bft)
31.01.2014 00:02 1,0 C -0,6 C 83 % 1006,5 hPa 0,0 l/m 0 min 0 min 0,0 UV-I 0 W/m 5,1 km/h (1 Bft)
31.01.2014 00:04 0,9 C -1,1 C 83 % 1006,6 hPa 0,0 l/m 0 min 0 min 0,0 UV-I 0 W/m 0,0 km/h (0 Bft)
31.01.2014 00:06 0,9 C -1,1 C 83 % 1006,5 hPa 0,0 l/m 0 min 0 min 0,0 UV-I 0 W/m 5,1 km/h (1 Bft)
31.01.2014 00:08 0,9 C -1,1 C 83 % 1006,6 hPa 0,0 l/m 0 min 0 min 0,0 UV-I 0 W/m 0,0 km/h (0 Bft)
31.01.2014 00:10 0,9 C -1,1 C 84 % 1006,5 hPa 0,0 l/m 0 min 0 min 0,0 UV-I 0 W/m 2,6 km/h (1 Bft)
31.01.2014 00:12 0,8 C -1,1 C 84 % 1006,5 hPa 0,0 l/m 0 min 0 min 0,0 UV-I 0 W/m 5,1 km/h (1 Bft)
31.01.2014 00:14 0,8 C -1,1 C 84 % 1006,5 hPa 0,0 l/m 0 min 0 min 0,0 UV-I 0 W/m 5,1 km/h (1 Bft)
31.01.2014 00:16 0,8 C -1,1 C 84 % 1006,5 hPa 0,0 l/m 0 min 0 min 0,0 UV-I 0 W/m 0,0 km/h (0 Bft)
31.01.2014 00:18 0,8 C -1,1 C 84 % 1006,5 hPa 0,0 l/m 0 min 0 min 0,0 UV-I 0 W/m 2,6 km/h (1 Bft)
31.01.2014 00:20 0,7 C -1,1 C 84 % 1006,5 hPa 0,0 l/m 0 min 0 min 0,0 UV-I 0 W/m 0,0 km/h (0 Bft)
31.01.2014 00:22 0,7 C -1,1 C 84 % 1006,5 hPa 0,0 l/m 0 min 0 min 0,0 UV-I 0 W/m 2,6 km/h (1 Bft)
31.01.2014 00:24 0,7 C -1,1 C 84 % 1006,6 hPa 0,0 l/m 0 min 0 min 0,0 UV-I 0 W/m 2,6 km/h (1 Bft)
31.01.2014 00:26 0,6 C -1,1 C 84 % 1006,6 hPa 0,0 l/m 0 min 0 min 0,0 UV-I 0 W/m 0,0 km/h (0 Bft)
31.01.2014 00:28 0,5 C -1,1 C 85 % 1006,6 hPa 0,0 l/m 0 min 0 min 0,0 UV-I 0 W/m 0,0 km/h (0 Bft)
31.01.2014 00:30 0,5 C -1,1 C 85 % 1006,6 hPa 0,0 l/m 0 min 0 min 0,0 UV-I 0 W/m 2,6 km/h (1 Bft)
31.01.2014 00:32 0,5 C -1,1 C 85 % 1006,6 hPa 0,0 l/m 0 min 0 min 0,0 UV-I 0 W/m 2,6 km/h (1 Bft)
31.01.2014 00:34 0,5 C -1,1 C 85 % 1006,6 hPa 0,0 l/m 0 min 0 min 0,0 UV-I 0 W/m 10,3 km/h (2 Bft)
31.01.2014 00:36 0,5 C -1,7 C 85 % 1006,5 hPa 0,0 l/m 0 min 0 min 0,0 UV-I 0 W/m 0,0 km/h (0 Bft)
31.01.2014 00:38 0,5 C -1,7 C 85 % 1006,6 hPa 0,0 l/m 0 min 0 min 0,0 UV-I 0 W/m 0,0 km/h (0 Bft)
31.01.2014 00:40 0,5 C -1,7 C 85 % 1006,6 hPa 0,0 l/m 0 min 0 min 0,0 UV-I 0 W/m 0,0 km/h (0 Bft)
31.01.2014 00:42 0,4 C -1,7 C 85 % 1006,7 hPa 0,0 l/m 0 min 0 min 0,0 UV-I 0 W/m 0,0 km/h (0 Bft)
31.01.2014 00:44 0,4 C -1,7 C 85 % 1006,7 hPa 0,0 l/m 0 min 0 min 0,0 UV-I 0 W/m 0,0 km/h (0 Bft)
31.01.2014 00:46 0,4 C -1,7 C 85 % 1006,7 hPa 0,0 l/m 0 min 0 min 0,0 UV-I 0 W/m 0,0 km/h (0 Bft)
31.01.2014 00:48 0,4 C -1,7 C 85 % 1006,7 hPa 0,0 l/m 0 min 0 min 0,0 UV-I 0 W/m 0,0 km/h (0 Bft)
31.01.2014 00:50 0,3 C -1,7 C 85 % 1006,7 hPa 0,0 l/m 0 min 0 min 0,0 UV-I 0 W/m 0,0 km/h (0 Bft)
31.01.2014 00:52 0,3 C -1,7 C 85 % 1006,8 hPa 0,0 l/m 0 min 0 min 0,0 UV-I 0 W/m 0,0 km/h (0 Bft)
31.01.2014 00:54 0,2 C -1,7 C 86 % 1006,8 hPa 0,0 l/m 0 min 0 min 0,0 UV-I 0 W/m 0,0 km/h (0 Bft)
31.01.2014 00:56 0,2 C -1,7 C 86 % 1006,8 hPa 0,0 l/m 0 min 0 min 0,0 UV-I 0 W/m 0,0 km/h (0 Bft)
31.01.2014 00:58 0,2 C -1,7 C 86 % 1006,8 hPa 0,0 l/m 0 min 0 min 0,0 UV-I 0 W/m 0,0 km/h (0 Bft)
31.01.2014 01:00 0,2 C -1,7 C 86 % 1006,8 hPa 0,0 l/m 0 min 0 min 0,0 UV-I 0 W/m 0,0 km/h (0 Bft)
31.01.2014 01:02 0,2 C -1,7 C 86 % 1006,8 hPa 0,0 l/m 0 min 0 min 0,0 UV-I 0 W/m 0,0 km/h (0 Bft)
31.01.2014 01:04 0,2 C -1,7 C 86 % 1006,8 hPa 0,0 l/m 0 min 0 min 0,0 UV-I 0 W/m 0,0 km/h (0 Bft)
31.01.2014 01:06 0,2 C -1,7 C 86 % 1006,7 hPa 0,0 l/m 0 min 0 min 0,0 UV-I 0 W/m 0,0 km/h (0 Bft)
31.01.2014 01:08 0,2 C -1,7 C 86 % 1006,9 hPa 0,0 l/m 0 min 0 min 0,0 UV-I 0 W/m 0,0 km/h (0 Bft)
31.01.2014 01:10 0,2 C -1,7 C 86 % 1006,9 hPa 0,0 l/m 0 min 0 min 0,0 UV-I 0 W/m 0,0 km/h (0 Bft)
31.01.2014 01:12 0,2 C -1,7 C 86 % 1006,9 hPa 0,0 l/m 0 min 0 min 0,0 UV-I 0 W/m 0,0 km/h (0 Bft)
31.01.2014 01:14 0,2 C -1,7 C 87 % 1006,9 hPa 0,0 l/m 0 min 0 min 0,0 UV-I 0 W/m 0,0 km/h (0 Bft)
31.01.2014 01:16 0,2 C -1,7 C 87 % 1006,9 hPa 0,0 l/m 0 min 0 min 0,0 UV-I 0 W/m 0,0 km/h (0 Bft)
31.01.2014 01:18 0,2 C -1,7 C 87 % 1007,0 hPa 0,0 l/m 0 min 0 min 0,0 UV-I 0 W/m 0,0 km/h (0 Bft)
31.01.2014 01:20 0,2 C -1,7 C 86 % 1006,9 hPa 0,0 l/m 0 min 0 min 0,0 UV-I 0 W/m 0,0 km/h (0 Bft)
31.01.2014 01:22 0,2 C -1,7 C 86 % 1007,0 hPa 0,0 l/m 0 min 0 min 0,0 UV-I 0 W/m 0,0 km/h (0 Bft)
31.01.2014 01:24 0,2 C -1,7 C 86 % 1007,0 hPa 0,0 l/m 0 min 0 min 0,0 UV-I 0 W/m 0,0 km/h (0 Bft)
31.01.2014 01:26 0,2 C -1,7 C 86 % 1006,9 hPa 0,0 l/m 0 min 0 min 0,0 UV-I 0 W/m 0,0 km/h (0 Bft)
31.01.2014 01:28 0,2 C -1,7 C 86 % 1006,9 hPa 0,0 l/m 0 min 0 min 0,0 UV-I 0 W/m 0,0 km/h (0 Bft)
31.01.2014 01:30 0,2 C -1,7 C 86 % 1006,9 hPa 0,0 l/m 0 min 0 min 0,0 UV-I 0 W/m 0,0 km/h (0 Bft)
31.01.2014 01:32 0,2 C -1,7 C 87 % 1007,0 hPa 0,0 l/m 0 min 0 min 0,0 UV-I 0 W/m 0,0 km/h (0 Bft)
31.01.2014 01:34 0,2 C -1,7 C 87 % 1007,0 hPa 0,0 l/m 0 min 0 min 0,0 UV-I 0 W/m 0,0 km/h (0 Bft)
31.01.2014 01:36 0,1 C -1,7 C 87 % 1007,0 hPa 0,0 l/m 0 min 0 min 0,0 UV-I 0 W/m 0,0 km/h (0 Bft)
31.01.2014 01:38 0,1 C -1,7 C 87 % 1007,0 hPa 0,0 l/m 0 min 0 min 0,0 UV-I 0 W/m 0,0 km/h (0 Bft)
31.01.2014 01:40 0,1 C -1,7 C 87 % 1007,0 hPa 0,0 l/m 0 min 0 min 0,0 UV-I 0 W/m 0,0 km/h (0 Bft)
31.01.2014 01:42 0,1 C -1,7 C 87 % 1007,0 hPa 0,0 l/m 0 min 0 min 0,0 UV-I 0 W/m 0,0 km/h (0 Bft)
31.01.2014 01:44 0,1 C -1,7 C 87 % 1006,9 hPa 0,0 l/m 0 min 0 min 0,0 UV-I 0 W/m 0,0 km/h (0 Bft)
31.01.2014 01:46 0,1 C -1,7 C 87 % 1006,9 hPa 0,0 l/m 0 min 0 min 0,0 UV-I 0 W/m 0,0 km/h (0 Bft)
31.01.2014 01:48 0,1 C -2,2 C 87 % 1007,0 hPa 0,0 l/m 0 min 0 min 0,0 UV-I 0 W/m 0,0 km/h (0 Bft)
31.01.2014 01:50 0,1 C -2,2 C 87 % 1007,0 hPa 0,0 l/m 0 min 0 min 0,0 UV-I 0 W/m 0,0 km/h (0 Bft)
31.01.2014 01:52 0,0 C -2,2 C 87 % 1007,0 hPa 0,0 l/m 0 min 0 min 0,0 UV-I 0 W/m 0,0 km/h (0 Bft)
31.01.2014 01:54 0,0 C -2,2 C 87 % 1007,1 hPa 0,0 l/m 0 min 0 min 0,0 UV-I 0 W/m 0,0 km/h (0 Bft)
31.01.2014 01:56 0,0 C -2,2 C 87 % 1007,1 hPa 0,0 l/m 0 min 0 min 0,0 UV-I 0 W/m 0,0 km/h (0 Bft)
31.01.2014 01:58 0,0 C -2,2 C 87 % 1007,1 hPa 0,0 l/m 0 min 0 min 0,0 UV-I 0 W/m 0,0 km/h (0 Bft)
31.01.2014 02:00 0,0 C -2,2 C 87 % 1007,0 hPa 0,0 l/m 0 min 0 min 0,0 UV-I 0 W/m 0,0 km/h (0 Bft)
31.01.2014 02:02 -0,1 C -2,2 C 87 % 1007,0 hPa 0,0 l/m 0 min 0 min 0,0 UV-I 0 W/m 0,0 km/h (0 Bft)
31.01.2014 02:04 0,0 C -2,2 C 87 % 1007,0 hPa 0,0 l/m 0 min 0 min 0,0 UV-I 0 W/m 0,0 km/h (0 Bft)
31.01.2014 02:06 0,0 C -2,2 C 87 % 1007,0 hPa 0,0 l/m 0 min 0 min 0,0 UV-I 0 W/m 0,0 km/h (0 Bft)
31.01.2014 02:08 0,0 C -2,2 C 87 % 1007,0 hPa 0,0 l/m 0 min 0 min 0,0 UV-I 0 W/m 0,0 km/h (0 Bft)
31.01.2014 02:10 -0,1 C -2,2 C 87 % 1007,0 hPa 0,0 l/m 0 min 0 min 0,0 UV-I 0 W/m 0,0 km/h (0 Bft)
31.01.2014 02:12 -0,1 C -2,2 C 87 % 1007,1 hPa 0,0 l/m 0 min 0 min 0,0 UV-I 0 W/m 0,0 km/h (0 Bft)
31.01.2014 02:14 -0,1 C -2,2 C 87 % 1007,1 hPa 0,0 l/m 0 min 0 min 0,0 UV-I 0 W/m 0,0 km/h (0 Bft)
31.01.2014 02:16 -0,1 C -2,2 C 87 % 1007,0 hPa 0,0 l/m 0 min 0 min 0,0 UV-I 0 W/m 0,0 km/h (0 Bft)
31.01.2014 02:18 -0,1 C -2,2 C 87 % 1006,9 hPa 0,0 l/m 0 min 0 min 0,0 UV-I 0 W/m 0,0 km/h (0 Bft)
31.01.2014 02:20 -0,1 C -1,7 C 88 % 1007,0 hPa 0,0 l/m 0 min 0 min 0,0 UV-I 0 W/m 0,0 km/h (0 Bft)
31.01.2014 02:22 -0,1 C -1,7 C 88 % 1007,0 hPa 0,0 l/m 0 min 0 min 0,0 UV-I 0 W/m 0,0 km/h (0 Bft)
31.01.2014 02:24 -0,1 C -1,7 C 88 % 1007,0 hPa 0,0 l/m 0 min 0 min 0,0 UV-I 0 W/m 0,0 km/h (0 Bft)
31.01.2014 02:26 -0,1 C -1,7 C 88 % 1007,0 hPa 0,0 l/m 0 min 0 min 0,0 UV-I 0 W/m 0,0 km/h (0 Bft)
31.01.2014 02:28 -0,1 C -1,7 C 88 % 1006,9 hPa 0,0 l/m 0 min 0 min 0,0 UV-I 0 W/m 0,0 km/h (0 Bft)
31.01.2014 02:30 -0,1 C -1,7 C 88 % 1007,0 hPa 0,0 l/m 0 min 0 min 0,0 UV-I 0 W/m 0,0 km/h (0 Bft)
31.01.2014 02:32 0,0 C -1,7 C 88 % 1007,0 hPa 0,0 l/m 0 min 0 min 0,0 UV-I 0 W/m 0,0 km/h (0 Bft)
31.01.2014 02:34 0,0 C -1,7 C 88 % 1007,0 hPa 0,0 l/m 0 min 0 min 0,0 UV-I 0 W/m 0,0 km/h (0 Bft)
31.01.2014 02:36 0,0 C -1,7 C 88 % 1007,0 hPa 0,0 l/m 0 min 0 min 0,0 UV-I 0 W/m 0,0 km/h (0 Bft)
31.01.2014 02:38 0,0 C -1,7 C 88 % 1007,1 hPa 0,0 l/m 0 min 0 min 0,0 UV-I 0 W/m 0,0 km/h (0 Bft)
31.01.2014 02:40 0,0 C -1,7 C 88 % 1007,1 hPa 0,0 l/m 0 min 0 min 0,0 UV-I 0 W/m 0,0 km/h (0 Bft)
31.01.2014 02:42 0,0 C -1,7 C 88 % 1007,0 hPa 0,0 l/m 0 min 0 min 0,0 UV-I 0 W/m 0,0 km/h (0 Bft)
31.01.2014 02:44 0,1 C -1,1 C 88 % 1007,0 hPa 0,0 l/m 0 min 0 min 0,0 UV-I 0 W/m 0,0 km/h (0 Bft)
31.01.2014 02:46 0,1 C -1,1 C 88 % 1007,0 hPa 0,0 l/m 0 min 0 min 0,0 UV-I 0 W/m 0,0 km/h (0 Bft)
31.01.2014 02:48 0,1 C -1,1 C 88 % 1007,0 hPa 0,0 l/m 0 min 0 min 0,0 UV-I 0 W/m 0,0 km/h (0 Bft)
31.01.2014 02:50 0,1 C -1,1 C 88 % 1007,0 hPa 0,0 l/m 0 min 0 min 0,0 UV-I 0 W/m 0,0 km/h (0 Bft)
31.01.2014 02:52 0,2 C -1,1 C 88 % 1007,1 hPa 0,0 l/m 0 min 0 min 0,0 UV-I 0 W/m 0,0 km/h (0 Bft)
31.01.2014 02:54 0,2 C -1,1 C 88 % 1007,1 hPa 0,0 l/m 0 min 0 min 0,0 UV-I 0 W/m 0,0 km/h (0 Bft)
31.01.2014 02:56 0,2 C -1,1 C 88 % 1007,1 hPa 0,0 l/m 0 min 0 min 0,0 UV-I 0 W/m 0,0 km/h (0 Bft)
31.01.2014 02:58 0,2 C -1,1 C 88 % 1007,1 hPa 0,0 l/m 0 min 0 min 0,0 UV-I 0 W/m 0,0 km/h (0 Bft)
31.01.2014 03:00 0,2 C -1,1 C 88 % 1007,1 hPa 0,0 l/m 0 min 0 min 0,0 UV-I 0 W/m 0,0 km/h (0 Bft)
31.01.2014 03:02 0,2 C -1,1 C 88 % 1007,1 hPa 0,0 l/m 0 min 0 min 0,0 UV-I 0 W/m 2,6 km/h (1 Bft)
31.01.2014 03:04 0,2 C -1,1 C 88 % 1007,1 hPa 0,0 l/m 0 min 0 min 0,0 UV-I 0 W/m 0,0 km/h (0 Bft)
31.01.2014 03:06 0,2 C -1,1 C 88 % 1007,1 hPa 0,0 l/m 0 min 0 min 0,0 UV-I 0 W/m 5,1 km/h (1 Bft)
31.01.2014 03:08 0,3 C -1,1 C 88 % 1007,1 hPa 0,0 l/m 0 min 0 min 0,0 UV-I 0 W/m 2,6 km/h (1 Bft)
31.01.2014 03:10 0,3 C -1,1 C 88 % 1007,1 hPa 0,0 l/m 0 min 0 min 0,0 UV-I 0 W/m 2,6 km/h (1 Bft)
31.01.2014 03:12 0,3 C -1,1 C 87 % 1007,1 hPa 0,0 l/m 0 min 0 min 0,0 UV-I 0 W/m 2,6 km/h (1 Bft)
31.01.2014 03:14 0,3 C -0,6 C 87 % 1007,1 hPa 0,0 l/m 0 min 0 min 0,0 UV-I 0 W/m 0,0 km/h (0 Bft)
31.01.2014 03:16 0,3 C -0,6 C 87 % 1007,1 hPa 0,0 l/m 0 min 0 min 0,0 UV-I 0 W/m 0,0 km/h (0 Bft)
31.01.2014 03:18 0,4 C -0,6 C 87 % 1007,1 hPa 0,0 l/m 0 min 0 min 0,0 UV-I 0 W/m 0,0 km/h (0 Bft)
31.01.2014 03:20 0,4 C -1,1 C 87 % 1007,1 hPa 0,0 l/m 0 min 0 min 0,0 UV-I 0 W/m 0,0 km/h (0 Bft)
31.01.2014 03:22 0,4 C -1,1 C 88 % 1007,0 hPa 0,0 l/m 0 min 0 min 0,0 UV-I 0 W/m 5,1 km/h (1 Bft)
31.01.2014 03:24 0,4 C -1,1 C 87 % 1007,0 hPa 0,0 l/m 0 min 0 min 0,0 UV-I 0 W/m 0,0 km/h (0 Bft)
31.01.2014 03:26 0,4 C -1,1 C 88 % 1007,1 hPa 0,0 l/m 0 min 0 min 0,0 UV-I 0 W/m 0,0 km/h (0 Bft)
31.01.2014 03:28 0,4 C -1,1 C 88 % 1007,1 hPa 0,0 l/m 0 min 0 min 0,0 UV-I 0 W/m 5,1 km/h (1 Bft)
31.01.2014 03:30 0,4 C -1,1 C 87 % 1007,1 hPa 0,0 l/m 0 min 0 min 0,0 UV-I 0 W/m 0,0 km/h (0 Bft)
31.01.2014 03:32 0,4 C -1,1 C 87 % 1007,0 hPa 0,0 l/m 0 min 0 min 0,0 UV-I 0 W/m 0,0 km/h (0 Bft)
31.01.2014 03:34 0,4 C -1,1 C 87 % 1007,1 hPa 0,0 l/m 0 min 0 min 0,0 UV-I 0 W/m 5,1 km/h (1 Bft)
31.01.2014 03:36 0,4 C -1,1 C 87 % 1007,1 hPa 0,0 l/m 0 min 0 min 0,0 UV-I 0 W/m 5,1 km/h (1 Bft)
31.01.2014 03:38 0,4 C -1,1 C 87 % 1007,1 hPa 0,0 l/m 0 min 0 min 0,0 UV-I 0 W/m 0,0 km/h (0 Bft)
31.01.2014 03:40 0,4 C -0,6 C 87 % 1007,1 hPa 0,0 l/m 0 min 0 min 0,0 UV-I 0 W/m 5,1 km/h (1 Bft)
31.01.2014 03:42 0,5 C -0,6 C 87 % 1007,1 hPa 0,0 l/m 0 min 0 min 0,0 UV-I 0 W/m 5,1 km/h (1 Bft)
31.01.2014 03:44 0,5 C -0,6 C 87 % 1007,0 hPa 0,0 l/m 0 min 0 min 0,0 UV-I 0 W/m 2,6 km/h (1 Bft)
31.01.2014 03:46 0,5 C -0,6 C 87 % 1007,0 hPa 0,0 l/m 0 min 0 min 0,0 UV-I 0 W/m 0,0 km/h (0 Bft)
31.01.2014 03:48 0,5 C -0,6 C 87 % 1007,0 hPa 0,0 l/m 0 min 0 min 0,0 UV-I 0 W/m 0,0 km/h (0 Bft)
31.01.2014 03:50 0,5 C -1,1 C 87 % 1007,0 hPa 0,0 l/m 0 min 0 min 0,0 UV-I 0 W/m 0,0 km/h (0 Bft)
31.01.2014 03:52 0,5 C -1,1 C 87 % 1007,0 hPa 0,0 l/m 0 min 0 min 0,0 UV-I 0 W/m 0,0 km/h (0 Bft)
31.01.2014 03:54 0,5 C -1,1 C 87 % 1007,0 hPa 0,0 l/m 0 min 0 min 0,0 UV-I 0 W/m 0,0 km/h (0 Bft)
31.01.2014 03:56 0,4 C -1,1 C 87 % 1007,0 hPa 0,0 l/m 0 min 0 min 0,0 UV-I 0 W/m 0,0 km/h (0 Bft)
31.01.2014 03:58 0,4 C -1,1 C 87 % 1007,0 hPa 0,0 l/m 0 min 0 min 0,0 UV-I 0 W/m 0,0 km/h (0 Bft)
31.01.2014 04:00 0,4 C -1,1 C 87 % 1006,9 hPa 0,0 l/m 0 min 0 min 0,0 UV-I 0 W/m 0,0 km/h (0 Bft)
31.01.2014 04:02 0,4 C -1,1 C 87 % 1006,9 hPa 0,0 l/m 0 min 0 min 0,0 UV-I 0 W/m 0,0 km/h (0 Bft)
31.01.2014 04:04 0,4 C -1,1 C 87 % 1006,9 hPa 0,0 l/m 0 min 0 min 0,0 UV-I 0 W/m 0,0 km/h (0 Bft)
31.01.2014 04:06 0,4 C -1,1 C 87 % 1006,9 hPa 0,0 l/m 0 min 0 min 0,0 UV-I 0 W/m 0,0 km/h (0 Bft)
31.01.2014 04:08 0,3 C -1,1 C 87 % 1006,9 hPa 0,0 l/m 0 min 0 min 0,0 UV-I 0 W/m 2,6 km/h (1 Bft)
31.01.2014 04:10 0,3 C -1,1 C 87 % 1007,0 hPa 0,0 l/m 0 min 0 min 0,0 UV-I 0 W/m 0,0 km/h (0 Bft)
31.01.2014 04:12 0,3 C -1,1 C 87 % 1007,0 hPa 0,0 l/m 0 min 0 min 0,0 UV-I 0 W/m 0,0 km/h (0 Bft)
31.01.2014 04:14 0,3 C -1,1 C 87 % 1007,0 hPa 0,0 l/m 0 min 0 min 0,0 UV-I 0 W/m 0,0 km/h (0 Bft)
31.01.2014 04:16 0,2 C -1,7 C 87 % 1007,0 hPa 0,0 l/m 0 min 0 min 0,0 UV-I 0 W/m 0,0 km/h (0 Bft)
31.01.2014 04:18 0,2 C -1,7 C 87 % 1007,0 hPa 0,0 l/m 0 min 0 min 0,0 UV-I 0 W/m 0,0 km/h (0 Bft)
31.01.2014 04:20 0,2 C -1,7 C 87 % 1006,9 hPa 0,0 l/m 0 min 0 min 0,0 UV-I 0 W/m 0,0 km/h (0 Bft)
31.01.2014 04:22 0,2 C -1,7 C 88 % 1006,9 hPa 0,0 l/m 0 min 0 min 0,0 UV-I 0 W/m 0,0 km/h (0 Bft)
31.01.2014 04:24 0,2 C -1,7 C 88 % 1006,9 hPa 0,0 l/m 0 min 0 min 0,0 UV-I 0 W/m 0,0 km/h (0 Bft)
31.01.2014 04:26 0,2 C -1,7 C 88 % 1006,9 hPa 0,0 l/m 0 min 0 min 0,0 UV-I 0 W/m 0,0 km/h (0 Bft)
31.01.2014 04:28 0,1 C -1,7 C 88 % 1007,0 hPa 0,0 l/m 0 min 0 min 0,0 UV-I 0 W/m 0,0 km/h (0 Bft)
31.01.2014 04:30 0,1 C -1,7 C 88 % 1006,9 hPa 0,0 l/m 0 min 0 min 0,0 UV-I 0 W/m 0,0 km/h (0 Bft)
31.01.2014 04:32 0,1 C -1,7 C 88 % 1006,9 hPa 0,0 l/m 0 min 0 min 0,0 UV-I 0 W/m 0,0 km/h (0 Bft)
31.01.2014 04:34 0,1 C -1,7 C 88 % 1006,8 hPa 0,0 l/m 0 min 0 min 0,0 UV-I 0 W/m 0,0 km/h (0 Bft)
31.01.2014 04:36 0,1 C -1,7 C 88 % 1006,9 hPa 0,0 l/m 0 min 0 min 0,0 UV-I 0 W/m 0,0 km/h (0 Bft)
31.01.2014 04:38 0,1 C -1,7 C 88 % 1006,9 hPa 0,0 l/m 0 min 0 min 0,0 UV-I 0 W/m 0,0 km/h (0 Bft)
31.01.2014 04:40 0,1 C -1,7 C 88 % 1007,0 hPa 0,0 l/m 0 min 0 min 0,0 UV-I 0 W/m 0,0 km/h (0 Bft)
31.01.2014 04:42 0,0 C -1,7 C 88 % 1006,9 hPa 0,0 l/m 0 min 0 min 0,0 UV-I 0 W/m 0,0 km/h (0 Bft)
31.01.2014 04:44 0,0 C -1,7 C 89 % 1006,9 hPa 0,0 l/m 0 min 0 min 0,0 UV-I 0 W/m 0,0 km/h (0 Bft)
31.01.2014 04:46 -0,1 C -1,7 C 89 % 1006,9 hPa 0,0 l/m 0 min 0 min 0,0 UV-I 0 W/m 2,6 km/h (1 Bft)
31.01.2014 04:48 -0,1 C -1,7 C 89 % 1006,8 hPa 0,0 l/m 0 min 0 min 0,0 UV-I 0 W/m 5,1 km/h (1 Bft)
31.01.2014 04:50 -0,1 C -1,7 C 89 % 1006,7 hPa 0,0 l/m 0 min 0 min 0,0 UV-I 0 W/m 10,3 km/h (2 Bft)
31.01.2014 04:52 -0,1 C -1,7 C 89 % 1006,8 hPa 0,0 l/m 0 min 0 min 0,0 UV-I 0 W/m 0,0 km/h (0 Bft)
31.01.2014 04:54 -0,1 C -1,7 C 89 % 1006,8 hPa 0,0 l/m 0 min 0 min 0,0 UV-I 0 W/m 2,6 km/h (1 Bft)
31.01.2014 04:56 -0,1 C -1,7 C 89 % 1006,7 hPa 0,0 l/m 0 min 0 min 0,0 UV-I 0 W/m 0,0 km/h (0 Bft)
31.01.2014 04:58 -0,1 C -1,7 C 89 % 1006,8 hPa 0,0 l/m 0 min 0 min 0,0 UV-I 0 W/m 7,7 km/h (2 Bft)
31.01.2014 05:00 -0,1 C -1,7 C 89 % 1006,8 hPa 0,0 l/m 0 min 0 min 0,0 UV-I 0 W/m 2,6 km/h (1 Bft)
31.01.2014 05:02 -0,1 C -1,7 C 89 % 1006,8 hPa 0,0 l/m 0 min 0 min 0,0 UV-I 0 W/m 0,0 km/h (0 Bft)
31.01.2014 05:04 -0,2 C -1,7 C 89 % 1006,7 hPa 0,0 l/m 0 min 0 min 0,0 UV-I 0 W/m 0,0 km/h (0 Bft)
31.01.2014 05:06 -0,2 C -1,7 C 89 % 1006,7 hPa 0,0 l/m 0 min 0 min 0,0 UV-I 0 W/m 2,6 km/h (1 Bft)
31.01.2014 05:08 -0,2 C -1,7 C 89 % 1006,7 hPa 0,0 l/m 0 min 0 min 0,0 UV-I 0 W/m 0,0 km/h (0 Bft)
31.01.2014 05:10 -0,2 C -2,2 C 89 % 1006,7 hPa 0,0 l/m 0 min 0 min 0,0 UV-I 0 W/m 0,0 km/h (0 Bft)
31.01.2014 05:12 -0,3 C -2,2 C 89 % 1006,6 hPa 0,0 l/m 0 min 0 min 0,0 UV-I 0 W/m 5,1 km/h (1 Bft)
31.01.2014 05:14 -0,3 C -2,2 C 89 % 1006,6 hPa 0,0 l/m 0 min 0 min 0,0 UV-I 0 W/m 2,6 km/h (1 Bft)
31.01.2014 05:16 -0,3 C -2,2 C 89 % 1006,6 hPa 0,0 l/m 0 min 0 min 0,0 UV-I 0 W/m 0,0 km/h (0 Bft)
31.01.2014 05:18 -0,3 C -2,2 C 89 % 1006,7 hPa 0,0 l/m 0 min 0 min 0,0 UV-I 0 W/m 0,0 km/h (0 Bft)
31.01.2014 05:20 -0,3 C -2,2 C 89 % 1006,7 hPa 0,0 l/m 0 min 0 min 0,0 UV-I 0 W/m 0,0 km/h (0 Bft)
31.01.2014 05:22 -0,3 C -2,2 C 89 % 1006,6 hPa 0,0 l/m 0 min 0 min 0,0 UV-I 0 W/m 2,6 km/h (1 Bft)
31.01.2014 05:24 -0,4 C -2,2 C 89 % 1006,7 hPa 0,0 l/m 0 min 0 min 0,0 UV-I 0 W/m 5,1 km/h (1 Bft)
31.01.2014 05:26 -0,3 C -2,2 C 89 % 1006,6 hPa 0,0 l/m 0 min 0 min 0,0 UV-I 0 W/m 0,0 km/h (0 Bft)
31.01.2014 05:28 -0,4 C -2,2 C 89 % 1006,7 hPa 0,0 l/m 0 min 0 min 0,0 UV-I 0 W/m 0,0 km/h (0 Bft)
31.01.2014 05:30 -0,4 C -2,2 C 90 % 1006,8 hPa 0,0 l/m 0 min 0 min 0,0 UV-I 0 W/m 2,6 km/h (1 Bft)
31.01.2014 05:32 -0,4 C -2,2 C 90 % 1006,8 hPa 0,0 l/m 0 min 0 min 0,0 UV-I 0 W/m 0,0 km/h (0 Bft)
31.01.2014 05:34 -0,4 C -2,2 C 90 % 1006,8 hPa 0,0 l/m 0 min 0 min 0,0 UV-I 0 W/m 0,0 km/h (0 Bft)
31.01.2014 05:36 -0,4 C -2,2 C 90 % 1006,7 hPa 0,0 l/m 0 min 0 min 0,0 UV-I 0 W/m 2,6 km/h (1 Bft)
31.01.2014 05:38 -0,5 C -2,2 C 90 % 1006,8 hPa 0,0 l/m 0 min 0 min 0,0 UV-I 0 W/m 0,0 km/h (0 Bft)
31.01.2014 05:40 -0,5 C -2,2 C 90 % 1006,8 hPa 0,0 l/m 0 min 0 min 0,0 UV-I 0 W/m 0,0 km/h (0 Bft)
31.01.2014 05:42 -0,6 C -2,2 C 90 % 1006,7 hPa 0,0 l/m 0 min 0 min 0,0 UV-I 0 W/m 0,0 km/h (0 Bft)
31.01.2014 05:44 -0,6 C -2,2 C 90 % 1006,6 hPa 0,0 l/m 0 min 0 min 0,0 UV-I 0 W/m 0,0 km/h (0 Bft)
31.01.2014 05:46 -0,6 C -2,2 C 90 % 1006,6 hPa 0,0 l/m 0 min 0 min 0,0 UV-I 0 W/m 2,6 km/h (1 Bft)
31.01.2014 05:48 -0,6 C -2,2 C 90 % 1006,6 hPa 0,0 l/m 0 min 0 min 0,0 UV-I 0 W/m 0,0 km/h (0 Bft)
31.01.2014 05:50 -0,6 C -2,2 C 90 % 1006,6 hPa 0,0 l/m 0 min 0 min 0,0 UV-I 0 W/m 5,1 km/h (1 Bft)
31.01.2014 05:52 -0,6 C -2,2 C 90 % 1006,6 hPa 0,0 l/m 0 min 0 min 0,0 UV-I 0 W/m 5,1 km/h (1 Bft)
31.01.2014 05:54 -0,7 C -2,2 C 90 % 1006,6 hPa 0,0 l/m 0 min 0 min 0,0 UV-I 0 W/m 0,0 km/h (0 Bft)
31.01.2014 05:56 -0,7 C -2,2 C 90 % 1006,6 hPa 0,0 l/m 0 min 0 min 0,0 UV-I 0 W/m 0,0 km/h (0 Bft)
31.01.2014 05:58 -0,7 C -2,8 C 90 % 1006,6 hPa 0,0 l/m 0 min 0 min 0,0 UV-I 0 W/m 5,1 km/h (1 Bft)
31.01.2014 06:00 -0,7 C -2,2 C 90 % 1006,5 hPa 0,0 l/m 0 min 0 min 0,0 UV-I 0 W/m 7,7 km/h (2 Bft)
31.01.2014 06:02 -0,7 C -2,2 C 91 % 1006,5 hPa 0,0 l/m 0 min 0 min 0,0 UV-I 0 W/m 2,6 km/h (1 Bft)
31.01.2014 06:04 -0,7 C -2,2 C 91 % 1006,5 hPa 0,0 l/m 0 min 0 min 0,0 UV-I 0 W/m 0,0 km/h (0 Bft)
31.01.2014 06:06 -0,7 C -2,2 C 91 % 1006,6 hPa 0,0 l/m 0 min 0 min 0,0 UV-I 0 W/m 2,6 km/h (1 Bft)
31.01.2014 06:08 -0,7 C -2,2 C 91 % 1006,5 hPa 0,0 l/m 0 min 0 min 0,0 UV-I 0 W/m 0,0 km/h (0 Bft)
31.01.2014 06:10 -0,7 C -2,2 C 91 % 1006,5 hPa 0,0 l/m 0 min 0 min 0,0 UV-I 0 W/m 2,6 km/h (1 Bft)
31.01.2014 06:12 -0,8 C -2,2 C 91 % 1006,5 hPa 0,0 l/m 0 min 0 min 0,0 UV-I 0 W/m 0,0 km/h (0 Bft)
31.01.2014 06:14 -0,8 C -2,2 C 91 % 1006,5 hPa 0,0 l/m 0 min 0 min 0,0 UV-I 0 W/m 5,1 km/h (1 Bft)
31.01.2014 06:16 -0,8 C -2,2 C 91 % 1006,5 hPa 0,0 l/m 0 min 0 min 0,0 UV-I 0 W/m 5,1 km/h (1 Bft)
31.01.2014 06:18 -0,8 C -2,2 C 91 % 1006,5 hPa 0,0 l/m 0 min 0 min 0,0 UV-I 0 W/m 0,0 km/h (0 Bft)
31.01.2014 06:20 -0,8 C -2,2 C 91 % 1006,5 hPa 0,0 l/m 0 min 0 min 0,0 UV-I 0 W/m 2,6 km/h (1 Bft)
31.01.2014 06:22 -0,8 C -2,8 C 91 % 1006,6 hPa 0,0 l/m 0 min 0 min 0,0 UV-I 0 W/m 0,0 km/h (0 Bft)
31.01.2014 06:24 -0,8 C -2,8 C 91 % 1006,6 hPa 0,0 l/m 0 min 0 min 0,0 UV-I 0 W/m 0,0 km/h (0 Bft)
31.01.2014 06:26 -0,8 C -2,8 C 91 % 1006,7 hPa 0,0 l/m 0 min 0 min 0,0 UV-I 0 W/m 0,0 km/h (0 Bft)
31.01.2014 06:28 -0,8 C -2,8 C 91 % 1006,7 hPa 0,0 l/m 0 min 0 min 0,0 UV-I 0 W/m 0,0 km/h (0 Bft)
31.01.2014 06:30 -0,8 C -2,8 C 91 % 1006,6 hPa 0,0 l/m 0 min 0 min 0,0 UV-I 0 W/m 0,0 km/h (0 Bft)
31.01.2014 06:32 -0,9 C -2,8 C 91 % 1006,6 hPa 0,0 l/m 0 min 0 min 0,0 UV-I 0 W/m 0,0 km/h (0 Bft)
31.01.2014 06:34 -0,9 C -2,8 C 91 % 1006,5 hPa 0,0 l/m 0 min 0 min 0,0 UV-I 0 W/m 0,0 km/h (0 Bft)
31.01.2014 06:36 -0,9 C -2,8 C 91 % 1006,5 hPa 0,0 l/m 0 min 0 min 0,0 UV-I 0 W/m 0,0 km/h (0 Bft)
31.01.2014 06:38 -0,9 C -2,8 C 91 % 1006,6 hPa 0,0 l/m 0 min 0 min 0,0 UV-I 0 W/m 0,0 km/h (0 Bft)
31.01.2014 06:40 -0,9 C -2,8 C 91 % 1006,7 hPa 0,0 l/m 0 min 0 min 0,0 UV-I 0 W/m 0,0 km/h (0 Bft)
31.01.2014 06:42 -1,0 C -2,8 C 91 % 1006,7 hPa 0,0 l/m 0 min 0 min 0,0 UV-I 0 W/m 0,0 km/h (0 Bft)
31.01.2014 06:44 -1,0 C -3,3 C 91 % 1006,6 hPa 0,0 l/m 0 min 0 min 0,0 UV-I 0 W/m 0,0 km/h (0 Bft)
31.01.2014 06:46 -1,0 C -3,3 C 91 % 1006,7 hPa 0,0 l/m 0 min 0 min 0,0 UV-I 0 W/m 0,0 km/h (0 Bft)
31.01.2014 06:48 -1,1 C -3,3 C 92 % 1006,7 hPa 0,0 l/m 0 min 0 min 0,0 UV-I 0 W/m 0,0 km/h (0 Bft)
31.01.2014 06:50 -1,1 C -3,3 C 92 % 1006,7 hPa 0,0 l/m 0 min 0 min 0,0 UV-I 0 W/m 0,0 km/h (0 Bft)
31.01.2014 06:52 -1,1 C -3,3 C 92 % 1006,7 hPa 0,0 l/m 0 min 0 min 0,0 UV-I 0 W/m 0,0 km/h (0 Bft)
31.01.2014 06:54 -1,2 C -3,3 C 92 % 1006,8 hPa 0,0 l/m 0 min 0 min 0,0 UV-I 0 W/m 0,0 km/h (0 Bft)
31.01.2014 06:56 -1,3 C -3,3 C 92 % 1006,8 hPa 0,0 l/m 0 min 0 min 0,0 UV-I 0 W/m 0,0 km/h (0 Bft)
31.01.2014 06:58 -1,3 C -3,3 C 92 % 1006,8 hPa 0,0 l/m 0 min 0 min 0,0 UV-I 0 W/m 0,0 km/h (0 Bft)
31.01.2014 07:00 -1,3 C -3,3 C 92 % 1006,7 hPa 0,0 l/m 0 min 0 min 0,0 UV-I 0 W/m 0,0 km/h (0 Bft)
31.01.2014 07:02 -1,3 C -3,3 C 92 % 1006,7 hPa 0,0 l/m 0 min 0 min 0,0 UV-I 0 W/m 0,0 km/h (0 Bft)
31.01.2014 07:04 -1,4 C -3,3 C 92 % 1006,7 hPa 0,0 l/m 0 min 0 min 0,0 UV-I 0 W/m 0,0 km/h (0 Bft)
31.01.2014 07:06 -1,4 C -3,3 C 92 % 1006,7 hPa 0,0 l/m 0 min 0 min 0,0 UV-I 0 W/m 0,0 km/h (0 Bft)
31.01.2014 07:08 -1,4 C -3,3 C 92 % 1006,8 hPa 0,0 l/m 0 min 0 min 0,0 UV-I 0 W/m 0,0 km/h (0 Bft)
31.01.2014 07:10 -1,5 C -3,3 C 92 % 1006,8 hPa 0,0 l/m 0 min 0 min 0,0 UV-I 0 W/m 0,0 km/h (0 Bft)
31.01.2014 07:12 -1,6 C -3,3 C 92 % 1006,8 hPa 0,0 l/m 0 min 0 min 0,0 UV-I 0 W/m 0,0 km/h (0 Bft)
31.01.2014 07:14 -1,6 C -3,9 C 92 % 1006,8 hPa 0,0 l/m 0 min 0 min 0,0 UV-I 0 W/m 0,0 km/h (0 Bft)
31.01.2014 07:16 -1,6 C -3,9 C 92 % 1006,8 hPa 0,0 l/m 0 min 0 min 0,0 UV-I 0 W/m 0,0 km/h (0 Bft)
31.01.2014 07:18 -1,7 C -3,9 C 92 % 1006,9 hPa 0,0 l/m 0 min 0 min 0,0 UV-I 0 W/m 0,0 km/h (0 Bft)
31.01.2014 07:20 -1,7 C -3,9 C 92 % 1006,9 hPa 0,0 l/m 0 min 0 min 0,0 UV-I 0 W/m 0,0 km/h (0 Bft)
31.01.2014 07:22 -1,8 C -3,9 C 92 % 1006,8 hPa 0,0 l/m 0 min 0 min 0,0 UV-I 0 W/m 0,0 km/h (0 Bft)
31.01.2014 07:24 -1,8 C -3,9 C 93 % 1006,9 hPa 0,0 l/m 0 min 0 min 0,0 UV-I 0 W/m 0,0 km/h (0 Bft)
31.01.2014 07:26 -1,9 C -3,9 C 93 % 1006,9 hPa 0,0 l/m 0 min 0 min 0,0 UV-I 0 W/m 0,0 km/h (0 Bft)
31.01.2014 07:28 -1,9 C -3,9 C 93 % 1006,9 hPa 0,0 l/m 0 min 0 min 0,0 UV-I 0 W/m 0,0 km/h (0 Bft)
31.01.2014 07:30 -1,9 C -3,9 C 93 % 1006,8 hPa 0,0 l/m 0 min 0 min 0,0 UV-I 0 W/m 0,0 km/h (0 Bft)
31.01.2014 07:32 -1,9 C -3,9 C 93 % 1006,8 hPa 0,0 l/m 0 min 0 min 0,0 UV-I 0 W/m 0,0 km/h (0 Bft)
31.01.2014 07:34 -1,9 C -3,9 C 93 % 1006,9 hPa 0,0 l/m 0 min 0 min 0,0 UV-I 0 W/m 0,0 km/h (0 Bft)
31.01.2014 07:36 -1,9 C -3,9 C 93 % 1006,9 hPa 0,0 l/m 0 min 0 min 0,0 UV-I 0 W/m 0,0 km/h (0 Bft)
31.01.2014 07:38 -1,9 C -3,9 C 93 % 1006,9 hPa 0,0 l/m 0 min 0 min 0,0 UV-I 0 W/m 0,0 km/h (0 Bft)
31.01.2014 07:40 -1,9 C -3,9 C 93 % 1006,9 hPa 0,0 l/m 0 min 0 min 0,0 UV-I 0 W/m 0,0 km/h (0 Bft)
31.01.2014 07:42 -1,9 C -3,9 C 93 % 1006,9 hPa 0,0 l/m 0 min 0 min 0,0 UV-I 0 W/m 0,0 km/h (0 Bft)
31.01.2014 07:44 -1,9 C -3,9 C 93 % 1007,0 hPa 0,0 l/m 0 min 0 min 0,0 UV-I 0 W/m 0,0 km/h (0 Bft)
31.01.2014 07:46 -1,8 C -3,9 C 93 % 1007,0 hPa 0,0 l/m 0 min 0 min 0,0 UV-I 0 W/m 0,0 km/h (0 Bft)
31.01.2014 07:48 -1,8 C -3,9 C 93 % 1007,1 hPa 0,0 l/m 0 min 0 min 0,0 UV-I 0 W/m 0,0 km/h (0 Bft)
31.01.2014 07:50 -1,8 C -3,9 C 94 % 1007,0 hPa 0,0 l/m 0 min 0 min 0,0 UV-I 0 W/m 0,0 km/h (0 Bft)
31.01.2014 07:52 -1,7 C -3,9 C 94 % 1007,0 hPa 0,0 l/m 0 min 0 min 0,0 UV-I 0 W/m 0,0 km/h (0 Bft)
31.01.2014 07:54 -1,6 C -3,3 C 94 % 1007,0 hPa 0,0 l/m 0 min 0 min 0,0 UV-I 0 W/m 0,0 km/h (0 Bft)
31.01.2014 07:56 -1,6 C -3,3 C 94 % 1007,0 hPa 0,0 l/m 0 min 0 min 0,0 UV-I 0 W/m 0,0 km/h (0 Bft)
31.01.2014 07:58 -1,6 C -3,3 C 94 % 1007,0 hPa 0,0 l/m 0 min 0 min 0,0 UV-I 0 W/m 0,0 km/h (0 Bft)
31.01.2014 08:00 -1,5 C -3,3 C 94 % 1007,1 hPa 0,0 l/m 0 min 0 min 0,0 UV-I 0 W/m 0,0 km/h (0 Bft)
31.01.2014 08:02 -1,4 C -3,3 C 94 % 1007,2 hPa 0,0 l/m 0 min 0 min 0,0 UV-I 0 W/m 0,0 km/h (0 Bft)
31.01.2014 08:04 -1,4 C -3,3 C 94 % 1007,2 hPa 0,0 l/m 0 min 0 min 0,0 UV-I 0 W/m 0,0 km/h (0 Bft)
31.01.2014 08:06 -1,4 C -3,3 C 94 % 1007,3 hPa 0,0 l/m 0 min 0 min 0,0 UV-I 0 W/m 0,0 km/h (0 Bft)
31.01.2014 08:08 -1,4 C -3,3 C 94 % 1007,3 hPa 0,0 l/m 0 min 0 min 0,0 UV-I 0 W/m 0,0 km/h (0 Bft)
31.01.2014 08:10 -1,4 C -3,3 C 94 % 1007,4 hPa 0,0 l/m 0 min 0 min 0,0 UV-I 0 W/m 0,0 km/h (0 Bft)
31.01.2014 08:12 -1,4 C -3,3 C 94 % 1007,5 hPa 0,0 l/m 0 min 0 min 0,0 UV-I 0 W/m 0,0 km/h (0 Bft)
31.01.2014 08:14 -1,4 C -3,3 C 94 % 1007,5 hPa 0,0 l/m 0 min 0 min 0,0 UV-I 5 W/m 0,0 km/h (0 Bft)
31.01.2014 08:16 -1,5 C -3,3 C 94 % 1007,5 hPa 0,0 l/m 0 min 0 min 0,0 UV-I 5 W/m 0,0 km/h (0 Bft)
31.01.2014 08:18 -1,5 C -3,3 C 94 % 1007,5 hPa 0,0 l/m 0 min 0 min 0,0 UV-I 5 W/m 0,0 km/h (0 Bft)
31.01.2014 08:20 -1,6 C -3,3 C 94 % 1007,6 hPa 0,0 l/m 0 min 0 min 0,0 UV-I 7 W/m 0,0 km/h (0 Bft)
31.01.2014 08:22 -1,5 C -3,3 C 94 % 1007,7 hPa 0,0 l/m 0 min 0 min 0,0 UV-I 7 W/m 0,0 km/h (0 Bft)
31.01.2014 08:24 -1,6 C -3,3 C 94 % 1007,7 hPa 0,0 l/m 0 min 0 min 0,0 UV-I 9 W/m 0,0 km/h (0 Bft)
31.01.2014 08:26 -1,5 C -3,3 C 94 % 1007,7 hPa 0,0 l/m 0 min 0 min 0,0 UV-I 11 W/m 0,0 km/h (0 Bft)
31.01.2014 08:28 -1,5 C -3,3 C 94 % 1007,8 hPa 0,0 l/m 0 min 0 min 0,0 UV-I 11 W/m 0,0 km/h (0 Bft)
31.01.2014 08:30 -1,5 C -3,3 C 94 % 1007,9 hPa 0,0 l/m 0 min 0 min 0,0 UV-I 12 W/m 0,0 km/h (0 Bft)
31.01.2014 08:32 -1,4 C -3,3 C 94 % 1007,8 hPa 0,0 l/m 0 min 0 min 0,0 UV-I 14 W/m 0,0 km/h (0 Bft)
31.01.2014 08:34 -1,4 C -3,3 C 94 % 1007,8 hPa 0,0 l/m 0 min 0 min 0,0 UV-I 14 W/m 0,0 km/h (0 Bft)
31.01.2014 08:36 -1,4 C -3,3 C 94 % 1007,8 hPa 0,0 l/m 0 min 0 min 0,0 UV-I 16 W/m 0,0 km/h (0 Bft)
31.01.2014 08:38 -1,4 C -3,3 C 94 % 1007,8 hPa 0,0 l/m 0 min 0 min 0,0 UV-I 16 W/m 0,0 km/h (0 Bft)
31.01.2014 08:40 -1,4 C -3,3 C 94 % 1007,8 hPa 0,0 l/m 0 min 0 min 0,0 UV-I 18 W/m 0,0 km/h (0 Bft)
31.01.2014 08:42 -1,4 C -3,3 C 94 % 1007,8 hPa 0,0 l/m 0 min 0 min 0,0 UV-I 19 W/m 0,0 km/h (0 Bft)
31.01.2014 08:44 -1,4 C -3,3 C 94 % 1007,9 hPa 0,0 l/m 0 min 0 min 0,0 UV-I 19 W/m 0,0 km/h (0 Bft)
31.01.2014 08:46 -1,4 C -3,3 C 94 % 1007,9 hPa 0,0 l/m 0 min 0 min 0,0 UV-I 21 W/m 0,0 km/h (0 Bft)
31.01.2014 08:48 -1,4 C -3,3 C 94 % 1007,9 hPa 0,0 l/m 0 min 0 min 0,0 UV-I 23 W/m 0,0 km/h (0 Bft)
31.01.2014 08:50 -1,3 C -3,3 C 94 % 1008,0 hPa 0,0 l/m 0 min 0 min 0,0 UV-I 25 W/m 0,0 km/h (0 Bft)
31.01.2014 08:52 -1,3 C -3,3 C 94 % 1008,1 hPa 0,0 l/m 0 min 0 min 0,0 UV-I 26 W/m 0,0 km/h (0 Bft)
31.01.2014 08:54 -1,3 C -2,8 C 94 % 1008,1 hPa 0,0 l/m 0 min 0 min 0,0 UV-I 28 W/m 0,0 km/h (0 Bft)
31.01.2014 08:56 -1,3 C -2,8 C 94 % 1008,1 hPa 0,0 l/m 0 min 0 min 0,0 UV-I 30 W/m 0,0 km/h (0 Bft)
31.01.2014 08:58 -1,2 C -2,8 C 94 % 1008,1 hPa 0,0 l/m 0 min 0 min 0,0 UV-I 30 W/m 0,0 km/h (0 Bft)
31.01.2014 09:00 -1,2 C -2,8 C 94 % 1008,1 hPa 0,0 l/m 0 min 0 min 0,0 UV-I 33 W/m 0,0 km/h (0 Bft)
31.01.2014 09:02 -1,2 C -2,8 C 94 % 1008,2 hPa 0,0 l/m 0 min 0 min 0,0 UV-I 35 W/m 0,0 km/h (0 Bft)
31.01.2014 09:04 -1,1 C -2,8 C 94 % 1008,2 hPa 0,0 l/m 0 min 0 min 0,0 UV-I 35 W/m 0,0 km/h (0 Bft)
31.01.2014 09:06 -1,1 C -2,8 C 94 % 1008,2 hPa 0,0 l/m 0 min 0 min 0,0 UV-I 39 W/m 2,6 km/h (1 Bft)
31.01.2014 09:08 -1,0 C -2,8 C 94 % 1008,2 hPa 0,0 l/m 0 min 0 min 0,0 UV-I 39 W/m 0,0 km/h (0 Bft)
31.01.2014 09:10 -0,9 C -2,2 C 94 % 1008,1 hPa 0,0 l/m 0 min 0 min 0,0 UV-I 40 W/m 0,0 km/h (0 Bft)
31.01.2014 09:12 -0,9 C -2,2 C 94 % 1008,1 hPa 0,0 l/m 0 min 0 min 0,0 UV-I 40 W/m 0,0 km/h (0 Bft)
31.01.2014 09:14 -0,8 C -2,2 C 94 % 1008,2 hPa 0,0 l/m 0 min 0 min 0,0 UV-I 40 W/m 0,0 km/h (0 Bft)
31.01.2014 09:16 -0,8 C -2,2 C 94 % 1008,2 hPa 0,0 l/m 0 min 0 min 0,0 UV-I 40 W/m 0,0 km/h (0 Bft)
31.01.2014 09:18 -0,7 C -2,2 C 94 % 1008,2 hPa 0,0 l/m 0 min 0 min 0,0 UV-I 42 W/m 0,0 km/h (0 Bft)
31.01.2014 09:20 -0,7 C -2,2 C 94 % 1008,1 hPa 0,0 l/m 0 min 0 min 0,0 UV-I 42 W/m 2,6 km/h (1 Bft)
31.01.2014 09:22 -0,7 C -2,2 C 94 % 1008,1 hPa 0,0 l/m 0 min 0 min 0,0 UV-I 44 W/m 0,0 km/h (0 Bft)
31.01.2014 09:24 -0,6 C -2,2 C 94 % 1008,1 hPa 0,0 l/m 0 min 0 min 0,0 UV-I 46 W/m 0,0 km/h (0 Bft)
31.01.2014 09:26 -0,6 C -2,2 C 93 % 1008,1 hPa 0,0 l/m 0 min 0 min 0,0 UV-I 46 W/m 0,0 km/h (0 Bft)
31.01.2014 09:28 -0,5 C -1,7 C 94 % 1008,1 hPa 0,0 l/m 0 min 0 min 0,0 UV-I 47 W/m 0,0 km/h (0 Bft)
31.01.2014 09:30 -0,4 C -1,7 C 93 % 1008,1 hPa 0,0 l/m 0 min 0 min 0,0 UV-I 49 W/m 5,1 km/h (1 Bft)
31.01.2014 09:32 -0,4 C -1,7 C 93 % 1008,1 hPa 0,0 l/m 0 min 0 min 0,0 UV-I 63 W/m 5,1 km/h (1 Bft)
31.01.2014 09:34 -0,4 C -1,7 C 93 % 1008,1 hPa 0,0 l/m 0 min 0 min 0,0 UV-I 81 W/m 2,6 km/h (1 Bft)
31.01.2014 09:36 -0,3 C -1,7 C 93 % 1008,1 hPa 0,0 l/m 0 min 0 min 0,0 UV-I 90 W/m 2,6 km/h (1 Bft)
31.01.2014 09:38 -0,3 C -1,7 C 93 % 1008,0 hPa 0,0 l/m 0 min 0 min 0,0 UV-I 91 W/m 10,3 km/h (2 Bft)
31.01.2014 09:40 -0,3 C -1,7 C 93 % 1008,0 hPa 0,0 l/m 0 min 0 min 0,0 UV-I 93 W/m 2,6 km/h (1 Bft)
31.01.2014 09:42 -0,2 C -1,7 C 92 % 1008,0 hPa 0,0 l/m 0 min 0 min 0,0 UV-I 97 W/m 0,0 km/h (0 Bft)
31.01.2014 09:44 -0,2 C -1,7 C 93 % 1008,0 hPa 0,0 l/m 0 min 0 min 0,0 UV-I 100 W/m 2,6 km/h (1 Bft)
31.01.2014 09:46 -0,1 C -1,7 C 92 % 1008,0 hPa 0,0 l/m 0 min 0 min 0,0 UV-I 104 W/m 2,6 km/h (1 Bft)
31.01.2014 09:48 -0,1 C -1,1 C 92 % 1008,1 hPa 0,0 l/m 2 min 0 min 0,0 UV-I 109 W/m 0,0 km/h (0 Bft)
31.01.2014 09:50 -0,1 C -1,1 C 92 % 1008,1 hPa 0,0 l/m 2 min 0 min 0,0 UV-I 111 W/m 0,0 km/h (0 Bft)
31.01.2014 09:52 0,0 C -1,1 C 92 % 1008,1 hPa 0,0 l/m 2 min 0 min 0,0 UV-I 111 W/m 7,7 km/h (2 Bft)
31.01.2014 09:54 0,1 C -1,1 C 92 % 1008,2 hPa 0,0 l/m 2 min 0 min 0,0 UV-I 113 W/m 7,7 km/h (2 Bft)
31.01.2014 09:56 0,1 C -1,1 C 92 % 1008,2 hPa 0,0 l/m 2 min 0 min 0,0 UV-I 118 W/m 7,7 km/h (2 Bft)
31.01.2014 09:58 0,1 C -1,1 C 92 % 1008,2 hPa 0,0 l/m 2 min 0 min 0,0 UV-I 121 W/m 7,7 km/h (2 Bft)
31.01.2014 10:00 0,2 C -1,1 C 92 % 1008,2 hPa 0,0 l/m 2 min 0 min 0,0 UV-I 125 W/m 7,7 km/h (2 Bft)
31.01.2014 10:02 0,3 C -1,1 C 91 % 1008,2 hPa 0,0 l/m 2 min 0 min 0,0 UV-I 128 W/m 5,1 km/h (1 Bft)
31.01.2014 10:04 0,3 C -0,6 C 91 % 1008,2 hPa 0,0 l/m 2 min 0 min 0,0 UV-I 134 W/m 5,1 km/h (1 Bft)
31.01.2014 10:06 0,4 C -0,6 C 91 % 1008,2 hPa 0,0 l/m 2 min 0 min 0,0 UV-I 135 W/m 5,1 km/h (1 Bft)
31.01.2014 10:08 0,5 C -0,6 C 91 % 1008,2 hPa 0,0 l/m 2 min 0 min 0,0 UV-I 137 W/m 5,1 km/h (1 Bft)
31.01.2014 10:10 0,5 C -0,6 C 91 % 1008,2 hPa 0,0 l/m 2 min 0 min 0,0 UV-I 139 W/m 7,7 km/h (2 Bft)
31.01.2014 10:12 0,6 C -0,6 C 91 % 1008,2 hPa 0,0 l/m 2 min 0 min 0,0 UV-I 141 W/m 2,6 km/h (1 Bft)
31.01.2014 10:14 0,7 C -0,6 C 91 % 1008,2 hPa 0,0 l/m 2 min 0 min 0,0 UV-I 144 W/m 0,0 km/h (0 Bft)
31.01.2014 10:16 0,7 C -0,6 C 90 % 1008,1 hPa 0,0 l/m 2 min 0 min 0,0 UV-I 149 W/m 2,6 km/h (1 Bft)
31.01.2014 10:18 0,8 C -0,6 C 90 % 1008,2 hPa 0,0 l/m 2 min 0 min 0,0 UV-I 153 W/m 5,1 km/h (1 Bft)
31.01.2014 10:20 0,9 C -0,6 C 90 % 1008,2 hPa 0,0 l/m 2 min 0 min 0,0 UV-I 158 W/m 10,3 km/h (2 Bft)
31.01.2014 10:22 1,0 C -0,6 C 90 % 1008,2 hPa 0,0 l/m 2 min 0 min 0,0 UV-I 160 W/m 5,1 km/h (1 Bft)
31.01.2014 10:24 1,1 C 0,0 C 90 % 1008,2 hPa 0,0 l/m 2 min 0 min 0,0 UV-I 163 W/m 7,7 km/h (2 Bft)
31.01.2014 10:26 1,2 C 0,0 C 89 % 1008,2 hPa 0,0 l/m 2 min 0 min 0,0 UV-I 167 W/m 7,7 km/h (2 Bft)
31.01.2014 10:28 1,3 C 0,0 C 89 % 1008,2 hPa 0,0 l/m 2 min 0 min 0,0 UV-I 172 W/m 7,7 km/h (2 Bft)
31.01.2014 10:30 1,4 C 0,0 C 89 % 1008,2 hPa 0,0 l/m 2 min 0 min 0,0 UV-I 174 W/m 2,6 km/h (1 Bft)
31.01.2014 10:32 1,4 C 0,0 C 89 % 1008,1 hPa 0,0 l/m 2 min 0 min 0,0 UV-I 174 W/m 10,3 km/h (2 Bft)
31.01.2014 10:34 1,6 C 0,0 C 89 % 1008,1 hPa 0,0 l/m 2 min 0 min 0,0 UV-I 183 W/m 10,3 km/h (2 Bft)
31.01.2014 10:36 1,6 C 0,0 C 88 % 1008,2 hPa 0,0 l/m 2 min 0 min 0,0 UV-I 186 W/m 12,9 km/h (3 Bft)
31.01.2014 10:38 1,7 C 0,0 C 88 % 1008,1 hPa 0,0 l/m 2 min 0 min 0,0 UV-I 186 W/m 10,3 km/h (2 Bft)
31.01.2014 10:40 1,7 C 0,0 C 88 % 1008,1 hPa 0,0 l/m 2 min 0 min 0,0 UV-I 190 W/m 7,7 km/h (2 Bft)
31.01.2014 10:42 1,7 C 0,0 C 88 % 1008,1 hPa 0,0 l/m 2 min 0 min 0,0 UV-I 193 W/m 7,7 km/h (2 Bft)
31.01.2014 10:44 1,8 C 0,6 C 88 % 1008,0 hPa 0,0 l/m 2 min 0 min 0,0 UV-I 199 W/m 10,3 km/h (2 Bft)
31.01.2014 10:46 1,9 C 0,6 C 87 % 1008,0 hPa 0,0 l/m 2 min 0 min 0,0 UV-I 200 W/m 7,7 km/h (2 Bft)
31.01.2014 10:48 1,9 C 0,6 C 87 % 1008,0 hPa 0,0 l/m 2 min 0 min 0,0 UV-I 200 W/m 5,1 km/h (1 Bft)
31.01.2014 10:50 2,1 C 0,6 C 87 % 1007,9 hPa 0,0 l/m 2 min 0 min 0,0 UV-I 202 W/m 2,6 km/h (1 Bft)
31.01.2014 10:52 2,2 C 0,6 C 87 % 1007,9 hPa 0,0 l/m 2 min 0 min 0,0 UV-I 214 W/m 12,9 km/h (3 Bft)
31.01.2014 10:54 2,3 C 0,6 C 87 % 1007,9 hPa 0,0 l/m 2 min 0 min 0,0 UV-I 218 W/m 10,3 km/h (2 Bft)
31.01.2014 10:56 2,4 C 0,6 C 86 % 1007,9 hPa 0,0 l/m 2 min 0 min 0,0 UV-I 221 W/m 5,1 km/h (1 Bft)
31.01.2014 10:58 2,4 C 0,6 C 87 % 1007,9 hPa 0,0 l/m 2 min 0 min 0,0 UV-I 227 W/m 10,3 km/h (2 Bft)
31.01.2014 11:00 2,6 C 1,1 C 86 % 1007,8 hPa 0,0 l/m 2 min 0 min 0,0 UV-I 229 W/m 0,0 km/h (0 Bft)
31.01.2014 11:02 2,7 C 1,1 C 86 % 1007,8 hPa 0,0 l/m 2 min 0 min 0,0 UV-I 230 W/m 7,7 km/h (2 Bft)
31.01.2014 11:04 2,8 C 1,1 C 86 % 1007,9 hPa 0,0 l/m 2 min 0 min 0,0 UV-I 232 W/m 7,7 km/h (2 Bft)
31.01.2014 11:06 2,9 C 1,1 C 85 % 1007,8 hPa 0,0 l/m 2 min 0 min 0,0 UV-I 234 W/m 12,9 km/h (3 Bft)
31.01.2014 11:08 2,9 C 1,1 C 85 % 1007,8 hPa 0,0 l/m 2 min 0 min 0,0 UV-I 239 W/m 7,7 km/h (2 Bft)
31.01.2014 11:10 3,0 C 1,1 C 85 % 1007,8 hPa 0,0 l/m 2 min 0 min 0,0 UV-I 239 W/m 2,6 km/h (1 Bft)
31.01.2014 11:12 3,1 C 1,1 C 85 % 1007,8 hPa 0,0 l/m 2 min 0 min 0,0 UV-I 239 W/m 10,3 km/h (2 Bft)
31.01.2014 11:14 3,2 C 1,1 C 85 % 1007,8 hPa 0,0 l/m 2 min 0 min 0,0 UV-I 244 W/m 7,7 km/h (2 Bft)
31.01.2014 11:16 3,3 C 1,7 C 85 % 1007,8 hPa 0,0 l/m 2 min 0 min 0,0 UV-I 248 W/m 10,3 km/h (2 Bft)
31.01.2014 11:18 3,4 C 1,7 C 84 % 1007,8 hPa 0,0 l/m 2 min 0 min 0,0 UV-I 248 W/m 7,7 km/h (2 Bft)
31.01.2014 11:20 3,5 C 1,7 C 84 % 1007,9 hPa 0,0 l/m 2 min 0 min 0,0 UV-I 250 W/m 5,1 km/h (1 Bft)
31.01.2014 11:22 3,6 C 1,7 C 84 % 1007,9 hPa 0,0 l/m 2 min 0 min 0,0 UV-I 257 W/m 7,7 km/h (2 Bft)
31.01.2014 11:24 3,7 C 1,7 C 84 % 1008,0 hPa 0,0 l/m 2 min 0 min 0,0 UV-I 260 W/m 2,6 km/h (1 Bft)
31.01.2014 11:26 3,9 C 1,7 C 84 % 1008,0 hPa 0,0 l/m 2 min 0 min 0,0 UV-I 260 W/m 10,3 km/h (2 Bft)
31.01.2014 11:28 3,9 C 1,7 C 83 % 1008,0 hPa 0,0 l/m 2 min 0 min 0,0 UV-I 258 W/m 0,0 km/h (0 Bft)
31.01.2014 11:30 4,0 C 1,7 C 82 % 1008,0 hPa 0,0 l/m 2 min 0 min 0,0 UV-I 262 W/m 10,3 km/h (2 Bft)
31.01.2014 11:32 4,1 C 2,2 C 83 % 1008,0 hPa 0,0 l/m 2 min 0 min 0,0 UV-I 265 W/m 12,9 km/h (3 Bft)
31.01.2014 11:34 4,2 C 2,2 C 82 % 1007,9 hPa 0,0 l/m 2 min 0 min 0,0 UV-I 265 W/m 7,7 km/h (2 Bft)
31.01.2014 11:36 4,2 C 2,2 C 82 % 1007,9 hPa 0,0 l/m 2 min 0 min 0,0 UV-I 265 W/m 10,3 km/h (2 Bft)
31.01.2014 11:38 4,3 C 2,2 C 82 % 1007,9 hPa 0,0 l/m 2 min 0 min 0,0 UV-I 265 W/m 7,7 km/h (2 Bft)
31.01.2014 11:40 4,2 C 2,2 C 82 % 1007,9 hPa 0,0 l/m 2 min 0 min 0,0 UV-I 271 W/m 10,3 km/h (2 Bft)
31.01.2014 11:42 4,2 C 2,2 C 81 % 1007,8 hPa 0,0 l/m 2 min 0 min 0,0 UV-I 276 W/m 12,9 km/h (3 Bft)
31.01.2014 11:44 4,2 C 2,2 C 82 % 1007,8 hPa 0,0 l/m 2 min 0 min 0,0 UV-I 278 W/m 15,4 km/h (3 Bft)
31.01.2014 11:46 4,4 C 2,8 C 82 % 1007,8 hPa 0,0 l/m 2 min 0 min 0,0 UV-I 279 W/m 7,7 km/h (2 Bft)
31.01.2014 11:48 4,5 C 2,8 C 81 % 1007,8 hPa 0,0 l/m 2 min 0 min 0,0 UV-I 281 W/m 10,3 km/h (2 Bft)
31.01.2014 11:50 4,6 C 2,8 C 81 % 1007,8 hPa 0,0 l/m 2 min 0 min 0,0 UV-I 283 W/m 12,9 km/h (3 Bft)
31.01.2014 11:52 4,7 C 2,8 C 81 % 1007,8 hPa 0,0 l/m 2 min 0 min 0,0 UV-I 281 W/m 2,6 km/h (1 Bft)
31.01.2014 11:54 4,7 C 2,8 C 81 % 1007,9 hPa 0,0 l/m 2 min 0 min 0,0 UV-I 279 W/m 12,9 km/h (3 Bft)
31.01.2014 11:56 4,8 C 2,8 C 81 % 1007,8 hPa 0,0 l/m 2 min 0 min 0,0 UV-I 281 W/m 12,9 km/h (3 Bft)
31.01.2014 11:58 4,8 C 2,8 C 80 % 1007,9 hPa 0,0 l/m 2 min 0 min 0,0 UV-I 283 W/m 10,3 km/h (2 Bft)
31.01.2014 12:00 4,8 C 2,8 C 81 % 1007,9 hPa 0,0 l/m 2 min 0 min 0,0 UV-I 283 W/m 0,0 km/h (0 Bft)
31.01.2014 12:02 4,9 C 2,8 C 80 % 1007,9 hPa 0,0 l/m 2 min 0 min 0,0 UV-I 287 W/m 10,3 km/h (2 Bft)
31.01.2014 12:04 4,9 C 3,3 C 80 % 1008,0 hPa 0,0 l/m 2 min 0 min 0,0 UV-I 288 W/m 10,3 km/h (2 Bft)
31.01.2014 12:06 4,9 C 3,3 C 80 % 1008,0 hPa 0,0 l/m 2 min 0 min 0,0 UV-I 288 W/m 10,3 km/h (2 Bft)
31.01.2014 12:08 4,9 C 3,3 C 81 % 1008,0 hPa 0,0 l/m 2 min 0 min 0,0 UV-I 292 W/m 0,0 km/h (0 Bft)
31.01.2014 12:10 5,1 C 3,3 C 80 % 1008,0 hPa 0,0 l/m 2 min 0 min 0,0 UV-I 288 W/m 12,9 km/h (3 Bft)
31.01.2014 12:12 5,1 C 3,3 C 80 % 1008,0 hPa 0,0 l/m 2 min 0 min 0,0 UV-I 294 W/m 10,3 km/h (2 Bft)
31.01.2014 12:14 5,1 C 3,3 C 80 % 1007,9 hPa 0,0 l/m 2 min 0 min 0,0 UV-I 290 W/m 7,7 km/h (2 Bft)
31.01.2014 12:16 5,1 C 3,3 C 80 % 1007,9 hPa 0,0 l/m 2 min 0 min 0,0 UV-I 287 W/m 18,0 km/h (3 Bft)
31.01.2014 12:18 5,1 C 3,3 C 80 % 1007,9 hPa 0,0 l/m 2 min 0 min 0,0 UV-I 294 W/m 10,3 km/h (2 Bft)
31.01.2014 12:20 5,1 C 3,3 C 80 % 1007,9 hPa 0,0 l/m 2 min 0 min 0,0 UV-I 294 W/m 10,3 km/h (2 Bft)
31.01.2014 12:22 5,2 C 3,3 C 80 % 1007,8 hPa 0,0 l/m 2 min 0 min 0,0 UV-I 294 W/m 10,3 km/h (2 Bft)
31.01.2014 12:24 5,3 C 3,9 C 80 % 1007,8 hPa 0,0 l/m 2 min 0 min 0,0 UV-I 297 W/m 12,9 km/h (3 Bft)
31.01.2014 12:26 5,4 C 3,9 C 80 % 1007,8 hPa 0,0 l/m 2 min 0 min 0,0 UV-I 299 W/m 10,3 km/h (2 Bft)
31.01.2014 12:28 5,4 C 3,9 C 79 % 1007,9 hPa 0,0 l/m 2 min 0 min 0,0 UV-I 297 W/m 10,3 km/h (2 Bft)
31.01.2014 12:30 5,5 C 3,9 C 79 % 1007,8 hPa 0,0 l/m 2 min 0 min 0,0 UV-I 301 W/m 12,9 km/h (3 Bft)
31.01.2014 12:32 5,6 C 3,9 C 79 % 1007,8 hPa 0,0 l/m 2 min 0 min 0,0 UV-I 301 W/m 15,4 km/h (3 Bft)
31.01.2014 12:34 5,6 C 3,9 C 79 % 1007,8 hPa 0,0 l/m 2 min 0 min 0,0 UV-I 301 W/m 7,7 km/h (2 Bft)
31.01.2014 12:36 5,7 C 3,9 C 79 % 1007,8 hPa 0,0 l/m 2 min 0 min 0,0 UV-I 301 W/m 10,3 km/h (2 Bft)
31.01.2014 12:38 5,8 C 3,9 C 78 % 1007,7 hPa 0,0 l/m 2 min 0 min 0,0 UV-I 304 W/m 12,9 km/h (3 Bft)
31.01.2014 12:40 5,8 C 3,9 C 78 % 1007,7 hPa 0,0 l/m 2 min 0 min 0,0 UV-I 302 W/m 7,7 km/h (2 Bft)
31.01.2014 12:42 5,8 C 3,9 C 78 % 1007,7 hPa 0,0 l/m 2 min 0 min 0,0 UV-I 304 W/m 7,7 km/h (2 Bft)
31.01.2014 12:44 5,9 C 4,4 C 78 % 1007,6 hPa 0,0 l/m 2 min 0 min 0,0 UV-I 306 W/m 7,7 km/h (2 Bft)
31.01.2014 12:46 5,9 C 4,4 C 78 % 1007,6 hPa 0,0 l/m 2 min 0 min 0,0 UV-I 306 W/m 10,3 km/h (2 Bft)
31.01.2014 12:48 6,1 C 4,4 C 79 % 1007,6 hPa 0,0 l/m 2 min 0 min 0,0 UV-I 302 W/m 12,9 km/h (3 Bft)
31.01.2014 12:50 6,2 C 4,4 C 78 % 1007,6 hPa 0,0 l/m 2 min 0 min 0,0 UV-I 302 W/m 10,3 km/h (2 Bft)
31.01.2014 12:52 6,2 C 4,4 C 78 % 1007,6 hPa 0,0 l/m 2 min 0 min 0,0 UV-I 306 W/m 7,7 km/h (2 Bft)
31.01.2014 12:54 6,3 C 4,4 C 78 % 1007,6 hPa 0,0 l/m 2 min 0 min 0,0 UV-I 306 W/m 7,7 km/h (2 Bft)
31.01.2014 12:56 6,3 C 4,4 C 78 % 1007,6 hPa 0,0 l/m 2 min 0 min 0,0 UV-I 309 W/m 10,3 km/h (2 Bft)
31.01.2014 12:58 6,4 C 4,4 C 77 % 1007,6 hPa 0,0 l/m 2 min 0 min 0,0 UV-I 308 W/m 12,9 km/h (3 Bft)
31.01.2014 13:00 6,4 C 4,4 C 77 % 1007,6 hPa 0,0 l/m 2 min 0 min 0,0 UV-I 306 W/m 10,3 km/h (2 Bft)
31.01.2014 13:02 6,5 C 4,4 C 77 % 1007,6 hPa 0,0 l/m 2 min 0 min 0,0 UV-I 308 W/m 10,3 km/h (2 Bft)
31.01.2014 13:04 6,5 C 4,4 C 77 % 1007,6 hPa 0,0 l/m 2 min 0 min 0,0 UV-I 306 W/m 10,3 km/h (2 Bft)
31.01.2014 13:06 6,5 C 4,4 C 77 % 1007,6 hPa 0,0 l/m 2 min 0 min 0,0 UV-I 306 W/m 10,3 km/h (2 Bft)
31.01.2014 13:08 6,6 C 5,0 C 77 % 1007,6 hPa 0,0 l/m 2 min 0 min 0,0 UV-I 306 W/m 12,9 km/h (3 Bft)
31.01.2014 13:10 6,8 C 5,0 C 77 % 1007,6 hPa 0,0 l/m 2 min 0 min 0,0 UV-I 306 W/m 5,1 km/h (1 Bft)
31.01.2014 13:12 6,8 C 5,0 C 76 % 1007,6 hPa 0,0 l/m 2 min 0 min 0,0 UV-I 302 W/m 7,7 km/h (2 Bft)
31.01.2014 13:14 6,8 C 5,0 C 76 % 1007,6 hPa 0,0 l/m 2 min 0 min 0,0 UV-I 302 W/m 12,9 km/h (3 Bft)
31.01.2014 13:16 6,8 C 5,0 C 76 % 1007,5 hPa 0,0 l/m 2 min 0 min 0,0 UV-I 304 W/m 7,7 km/h (2 Bft)
31.01.2014 13:18 6,7 C 5,0 C 76 % 1007,5 hPa 0,0 l/m 2 min 0 min 0,0 UV-I 301 W/m 12,9 km/h (3 Bft)
31.01.2014 13:20 6,7 C 5,0 C 77 % 1007,5 hPa 0,0 l/m 2 min 0 min 0,0 UV-I 302 W/m 10,3 km/h (2 Bft)
31.01.2014 13:22 6,7 C 5,0 C 77 % 1007,5 hPa 0,0 l/m 2 min 0 min 0,0 UV-I 299 W/m 0,0 km/h (0 Bft)
31.01.2014 13:24 6,8 C 5,0 C 77 % 1007,4 hPa 0,0 l/m 2 min 0 min 0,0 UV-I 301 W/m 15,4 km/h (3 Bft)
31.01.2014 13:26 6,8 C 5,0 C 77 % 1007,3 hPa 0,0 l/m 2 min 0 min 0,0 UV-I 301 W/m 15,4 km/h (3 Bft)
31.01.2014 13:28 6,9 C 5,0 C 77 % 1007,2 hPa 0,0 l/m 2 min 0 min 0,0 UV-I 302 W/m 12,9 km/h (3 Bft)
31.01.2014 13:30 6,9 C 5,0 C 76 % 1007,1 hPa 0,0 l/m 2 min 0 min 0,0 UV-I 302 W/m 10,3 km/h (2 Bft)
31.01.2014 13:32 6,8 C 5,0 C 76 % 1007,1 hPa 0,0 l/m 2 min 0 min 0,0 UV-I 302 W/m 15,4 km/h (3 Bft)
31.01.2014 13:34 6,8 C 5,0 C 76 % 1007,0 hPa 0,0 l/m 2 min 0 min 0,0 UV-I 299 W/m 7,7 km/h (2 Bft)
31.01.2014 13:36 6,9 C 5,0 C 77 % 1007,1 hPa 0,0 l/m 2 min 0 min 0,0 UV-I 297 W/m 18,0 km/h (3 Bft)
31.01.2014 13:38 6,9 C 5,0 C 77 % 1007,0 hPa 0,0 l/m 2 min 0 min 0,0 UV-I 295 W/m 12,9 km/h (3 Bft)
31.01.2014 13:40 7,0 C 5,6 C 76 % 1007,0 hPa 0,0 l/m 2 min 0 min 0,0 UV-I 301 W/m 15,4 km/h (3 Bft)
31.01.2014 13:42 7,1 C 5,6 C 76 % 1007,0 hPa 0,0 l/m 2 min 0 min 0,0 UV-I 297 W/m 7,7 km/h (2 Bft)
31.01.2014 13:44 7,1 C 5,6 C 76 % 1007,0 hPa 0,0 l/m 2 min 0 min 0,0 UV-I 299 W/m 7,7 km/h (2 Bft)
31.01.2014 13:46 7,3 C 5,6 C 76 % 1007,0 hPa 0,0 l/m 2 min 0 min 0,0 UV-I 295 W/m 10,3 km/h (2 Bft)
31.01.2014 13:48 7,3 C 5,6 C 76 % 1007,0 hPa 0,0 l/m 2 min 0 min 0,0 UV-I 297 W/m 0,0 km/h (0 Bft)
31.01.2014 13:50 7,4 C 5,6 C 76 % 1007,0 hPa 0,0 l/m 2 min 0 min 0,0 UV-I 292 W/m 7,7 km/h (2 Bft)
31.01.2014 13:52 7,4 C 5,6 C 76 % 1007,0 hPa 0,0 l/m 2 min 0 min 0,0 UV-I 290 W/m 12,9 km/h (3 Bft)
31.01.2014 13:54 7,4 C 5,6 C 75 % 1007,0 hPa 0,0 l/m 2 min 0 min 0,0 UV-I 287 W/m 18,0 km/h (3 Bft)
31.01.2014 13:56 7,3 C 5,6 C 76 % 1007,1 hPa 0,0 l/m 2 min 0 min 0,0 UV-I 283 W/m 12,9 km/h (3 Bft)
31.01.2014 13:58 7,4 C 5,6 C 75 % 1007,0 hPa 0,0 l/m 2 min 0 min 0,0 UV-I 287 W/m 10,3 km/h (2 Bft)
31.01.2014 14:00 7,4 C 5,6 C 76 % 1007,0 hPa 0,0 l/m 2 min 0 min 0,0 UV-I 281 W/m 10,3 km/h (2 Bft)
31.01.2014 14:02 7,5 C 5,6 C 75 % 1007,0 hPa 0,0 l/m 2 min 0 min 0,0 UV-I 272 W/m 7,7 km/h (2 Bft)
31.01.2014 14:04 7,5 C 5,6 C 75 % 1007,0 hPa 0,0 l/m 2 min 0 min 0,0 UV-I 276 W/m 10,3 km/h (2 Bft)
31.01.2014 14:06 7,6 C 5,6 C 75 % 1007,1 hPa 0,0 l/m 2 min 0 min 0,0 UV-I 279 W/m 12,9 km/h (3 Bft)
31.01.2014 14:08 7,6 C 5,6 C 75 % 1007,0 hPa 0,0 l/m 2 min 0 min 0,0 UV-I 281 W/m 15,4 km/h (3 Bft)
31.01.2014 14:10 7,6 C 5,6 C 75 % 1007,1 hPa 0,0 l/m 2 min 0 min 0,0 UV-I 272 W/m 10,3 km/h (2 Bft)
31.01.2014 14:12 7,6 C 5,6 C 75 % 1007,1 hPa 0,0 l/m 2 min 0 min 0,0 UV-I 269 W/m 10,3 km/h (2 Bft)
31.01.2014 14:14 7,6 C 5,6 C 75 % 1007,0 hPa 0,0 l/m 2 min 0 min 0,0 UV-I 269 W/m 12,9 km/h (3 Bft)
31.01.2014 14:16 7,5 C 5,6 C 75 % 1007,0 hPa 0,0 l/m 2 min 0 min 0,0 UV-I 267 W/m 7,7 km/h (2 Bft)
31.01.2014 14:18 7,6 C 5,6 C 75 % 1007,0 hPa 0,0 l/m 2 min 0 min 0,0 UV-I 272 W/m 7,7 km/h (2 Bft)
31.01.2014 14:20 7,6 C 5,6 C 75 % 1007,0 hPa 0,0 l/m 2 min 0 min 0,0 UV-I 265 W/m 12,9 km/h (3 Bft)
31.01.2014 14:22 7,6 C 5,6 C 76 % 1006,8 hPa 0,0 l/m 2 min 0 min 0,0 UV-I 257 W/m 12,9 km/h (3 Bft)
31.01.2014 14:24 7,6 C 5,6 C 75 % 1006,8 hPa 0,0 l/m 2 min 0 min 0,0 UV-I 255 W/m 15,4 km/h (3 Bft)
31.01.2014 14:26 7,6 C 5,6 C 76 % 1006,8 hPa 0,0 l/m 2 min 0 min 0,0 UV-I 257 W/m 10,3 km/h (2 Bft)
31.01.2014 14:28 7,6 C 5,6 C 76 % 1006,8 hPa 0,0 l/m 2 min 0 min 0,0 UV-I 257 W/m 12,9 km/h (3 Bft)
31.01.2014 14:30 7,7 C 6,1 C 76 % 1006,7 hPa 0,0 l/m 2 min 0 min 0,0 UV-I 253 W/m 20,6 km/h (4 Bft)
31.01.2014 14:32 7,7 C 6,1 C 76 % 1006,7 hPa 0,0 l/m 2 min 0 min 0,0 UV-I 253 W/m 12,9 km/h (3 Bft)
31.01.2014 14:34 7,7 C 6,1 C 75 % 1006,7 hPa 0,0 l/m 2 min 0 min 0,0 UV-I 250 W/m 7,7 km/h (2 Bft)
31.01.2014 14:36 7,7 C 6,1 C 75 % 1006,7 hPa 0,0 l/m 2 min 0 min 0,0 UV-I 253 W/m 12,9 km/h (3 Bft)
31.01.2014 14:38 7,7 C 6,1 C 75 % 1006,7 hPa 0,0 l/m 2 min 0 min 0,0 UV-I 243 W/m 10,3 km/h (2 Bft)
31.01.2014 14:40 7,7 C 6,1 C 75 % 1006,6 hPa 0,0 l/m 2 min 0 min 0,0 UV-I 239 W/m 5,1 km/h (1 Bft)
31.01.2014 14:42 7,8 C 6,1 C 75 % 1006,6 hPa 0,0 l/m 2 min 0 min 0,0 UV-I 232 W/m 10,3 km/h (2 Bft)
31.01.2014 14:44 7,7 C 6,1 C 75 % 1006,5 hPa 0,0 l/m 2 min 0 min 0,0 UV-I 220 W/m 10,3 km/h (2 Bft)
31.01.2014 14:46 7,8 C 6,1 C 75 % 1006,5 hPa 0,0 l/m 2 min 0 min 0,0 UV-I 227 W/m 15,4 km/h (3 Bft)
31.01.2014 14:48 7,7 C 6,1 C 75 % 1006,4 hPa 0,0 l/m 2 min 0 min 0,0 UV-I 230 W/m 10,3 km/h (2 Bft)
31.01.2014 14:50 7,7 C 6,1 C 75 % 1006,4 hPa 0,0 l/m 2 min 0 min 0,0 UV-I 227 W/m 10,3 km/h (2 Bft)
31.01.2014 14:52 7,7 C 6,1 C 75 % 1006,3 hPa 0,0 l/m 2 min 0 min 0,0 UV-I 229 W/m 10,3 km/h (2 Bft)
31.01.2014 14:54 7,7 C 6,1 C 75 % 1006,2 hPa 0,0 l/m 2 min 0 min 0,0 UV-I 227 W/m 12,9 km/h (3 Bft)
31.01.2014 14:56 7,7 C 6,1 C 75 % 1006,3 hPa 0,0 l/m 2 min 0 min 0,0 UV-I 229 W/m 12,9 km/h (3 Bft)
31.01.2014 14:58 7,7 C 6,1 C 75 % 1006,2 hPa 0,0 l/m 2 min 0 min 0,0 UV-I 230 W/m 7,7 km/h (2 Bft)
31.01.2014 15:00 7,8 C 6,1 C 75 % 1006,3 hPa 0,0 l/m 2 min 0 min 0,0 UV-I 230 W/m 12,9 km/h (3 Bft)
31.01.2014 15:02 7,8 C 6,1 C 75 % 1006,3 hPa 0,0 l/m 2 min 0 min 0,0 UV-I 220 W/m 18,0 km/h (3 Bft)
31.01.2014 15:04 7,8 C 6,1 C 75 % 1006,3 hPa 0,0 l/m 2 min 0 min 0,0 UV-I 218 W/m 12,9 km/h (3 Bft)
31.01.2014 15:06 7,9 C 6,1 C 75 % 1006,3 hPa 0,0 l/m 2 min 0 min 0,0 UV-I 213 W/m 5,1 km/h (1 Bft)
31.01.2014 15:08 7,9 C 6,1 C 75 % 1006,2 hPa 0,0 l/m 2 min 0 min 0,0 UV-I 204 W/m 10,3 km/h (2 Bft)
31.01.2014 15:10 7,9 C 6,1 C 75 % 1006,2 hPa 0,0 l/m 2 min 0 min 0,0 UV-I 200 W/m 2,6 km/h (1 Bft)
31.01.2014 15:12 7,9 C 6,1 C 75 % 1006,2 hPa 0,0 l/m 2 min 0 min 0,0 UV-I 206 W/m 10,3 km/h (2 Bft)
31.01.2014 15:14 7,9 C 6,1 C 75 % 1006,1 hPa 0,0 l/m 2 min 0 min 0,0 UV-I 202 W/m 5,1 km/h (1 Bft)
31.01.2014 15:16 7,9 C 6,1 C 75 % 1006,0 hPa 0,0 l/m 2 min 0 min 0,0 UV-I 192 W/m 5,1 km/h (1 Bft)
31.01.2014 15:18 8,0 C 6,1 C 75 % 1006,0 hPa 0,0 l/m 2 min 0 min 0,0 UV-I 185 W/m 10,3 km/h (2 Bft)
31.01.2014 15:20 7,9 C 6,1 C 75 % 1006,0 hPa 0,0 l/m 2 min 0 min 0,0 UV-I 190 W/m 10,3 km/h (2 Bft)
31.01.2014 15:22 7,9 C 6,1 C 75 % 1005,9 hPa 0,0 l/m 2 min 0 min 0,0 UV-I 188 W/m 18,0 km/h (3 Bft)
31.01.2014 15:24 7,9 C 5,6 C 76 % 1005,9 hPa 0,0 l/m 2 min 0 min 0,0 UV-I 181 W/m 5,1 km/h (1 Bft)
31.01.2014 15:26 7,8 C 5,6 C 76 % 1005,9 hPa 0,0 l/m 2 min 0 min 0,0 UV-I 176 W/m 0,0 km/h (0 Bft)
31.01.2014 15:28 7,8 C 5,6 C 76 % 1005,9 hPa 0,0 l/m 2 min 0 min 0,0 UV-I 176 W/m 15,4 km/h (3 Bft)
31.01.2014 15:30 7,7 C 5,6 C 76 % 1005,8 hPa 0,0 l/m 2 min 0 min 0,0 UV-I 162 W/m 15,4 km/h (3 Bft)
31.01.2014 15:32 7,6 C 5,6 C 76 % 1005,8 hPa 0,0 l/m 2 min 0 min 0,0 UV-I 156 W/m 7,7 km/h (2 Bft)
31.01.2014 15:34 7,5 C 5,6 C 76 % 1005,8 hPa 0,0 l/m 2 min 0 min 0,0 UV-I 148 W/m 12,9 km/h (3 Bft)
31.01.2014 15:36 7,4 C 5,6 C 77 % 1005,9 hPa 0,0 l/m 2 min 0 min 0,0 UV-I 149 W/m 10,3 km/h (2 Bft)
31.01.2014 15:38 7,4 C 5,6 C 77 % 1005,9 hPa 0,0 l/m 2 min 0 min 0,0 UV-I 139 W/m 10,3 km/h (2 Bft)
31.01.2014 15:40 7,3 C 5,6 C 77 % 1005,8 hPa 0,0 l/m 2 min 0 min 0,0 UV-I 137 W/m 10,3 km/h (2 Bft)
31.01.2014 15:42 7,2 C 5,6 C 78 % 1005,8 hPa 0,0 l/m 2 min 0 min 0,0 UV-I 134 W/m 15,4 km/h (3 Bft)
31.01.2014 15:44 7,1 C 5,6 C 78 % 1005,9 hPa 0,0 l/m 2 min 0 min 0,0 UV-I 128 W/m 10,3 km/h (2 Bft)
31.01.2014 15:46 7,1 C 5,6 C 78 % 1005,9 hPa 0,0 l/m 2 min 0 min 0,0 UV-I 128 W/m 12,9 km/h (3 Bft)
31.01.2014 15:48 7,0 C 5,6 C 78 % 1005,9 hPa 0,0 l/m 2 min 0 min 0,0 UV-I 128 W/m 15,4 km/h (3 Bft)
31.01.2014 15:50 7,0 C 5,6 C 78 % 1005,9 hPa 0,0 l/m 2 min 0 min 0,0 UV-I 118 W/m 15,4 km/h (3 Bft)
31.01.2014 15:52 6,9 C 5,6 C 79 % 1005,9 hPa 0,0 l/m 2 min 0 min 0,0 UV-I 118 W/m 5,1 km/h (1 Bft)
31.01.2014 15:54 6,9 C 5,6 C 79 % 1005,9 hPa 0,0 l/m 2 min 0 min 0,0 UV-I 121 W/m 10,3 km/h (2 Bft)
31.01.2014 15:56 6,9 C 5,6 C 79 % 1005,9 hPa 0,0 l/m 2 min 0 min 0,0 UV-I 116 W/m 7,7 km/h (2 Bft)
31.01.2014 15:58 6,9 C 5,6 C 79 % 1005,8 hPa 0,0 l/m 2 min 0 min 0,0 UV-I 111 W/m 15,4 km/h (3 Bft)
31.01.2014 16:00 6,9 C 5,0 C 79 % 1005,9 hPa 0,0 l/m 2 min 0 min 0,0 UV-I 105 W/m 7,7 km/h (2 Bft)
31.01.2014 16:02 6,9 C 5,0 C 79 % 1005,9 hPa 0,0 l/m 0 min 0 min 0,0 UV-I 91 W/m 15,4 km/h (3 Bft)
31.01.2014 16:04 6,9 C 5,0 C 79 % 1005,9 hPa 0,0 l/m 0 min 0 min 0,0 UV-I 67 W/m 10,3 km/h (2 Bft)
31.01.2014 16:06 6,8 C 5,0 C 79 % 1005,9 hPa 0,0 l/m 0 min 0 min 0,0 UV-I 54 W/m 15,4 km/h (3 Bft)
31.01.2014 16:08 6,8 C 5,0 C 79 % 1005,9 hPa 0,0 l/m 0 min 0 min 0,0 UV-I 47 W/m 2,6 km/h (1 Bft)
31.01.2014 16:10 6,7 C 5,0 C 79 % 1005,9 hPa 0,0 l/m 0 min 0 min 0,0 UV-I 46 W/m 10,3 km/h (2 Bft)
31.01.2014 16:12 6,7 C 5,0 C 79 % 1005,9 hPa 0,0 l/m 0 min 0 min 0,0 UV-I 44 W/m 15,4 km/h (3 Bft)
31.01.2014 16:14 6,7 C 5,0 C 80 % 1005,9 hPa 0,0 l/m 0 min 0 min 0,0 UV-I 40 W/m 10,3 km/h (2 Bft)
31.01.2014 16:16 6,6 C 5,0 C 80 % 1005,9 hPa 0,0 l/m 0 min 0 min 0,0 UV-I 39 W/m 0,0 km/h (0 Bft)
31.01.2014 16:18 6,6 C 4,4 C 80 % 1006,0 hPa 0,0 l/m 0 min 0 min 0,0 UV-I 35 W/m 0,0 km/h (0 Bft)
31.01.2014 16:20 6,5 C 4,4 C 80 % 1005,9 hPa 0,0 l/m 0 min 0 min 0,0 UV-I 32 W/m 10,3 km/h (2 Bft)
31.01.2014 16:22 6,5 C 4,4 C 80 % 1005,9 hPa 0,0 l/m 0 min 0 min 0,0 UV-I 30 W/m 5,1 km/h (1 Bft)
31.01.2014 16:24 6,4 C 4,4 C 80 % 1006,0 hPa 0,0 l/m 0 min 0 min 0,0 UV-I 28 W/m 7,7 km/h (2 Bft)
31.01.2014 16:26 6,4 C 4,4 C 80 % 1006,0 hPa 0,0 l/m 0 min 0 min 0,0 UV-I 26 W/m 10,3 km/h (2 Bft)
31.01.2014 16:28 6,3 C 3,9 C 81 % 1006,0 hPa 0,0 l/m 0 min 0 min 0,0 UV-I 25 W/m 5,1 km/h (1 Bft)
31.01.2014 16:30 6,2 C 3,9 C 81 % 1006,0 hPa 0,0 l/m 0 min 0 min 0,0 UV-I 25 W/m 10,3 km/h (2 Bft)
31.01.2014 16:32 6,2 C 3,9 C 81 % 1006,0 hPa 0,0 l/m 0 min 0 min 0,0 UV-I 25 W/m 2,6 km/h (1 Bft)
31.01.2014 16:34 6,1 C 3,9 C 81 % 1006,1 hPa 0,0 l/m 0 min 0 min 0,0 UV-I 25 W/m 7,7 km/h (2 Bft)
31.01.2014 16:36 6,1 C 3,9 C 82 % 1006,1 hPa 0,0 l/m 0 min 0 min 0,0 UV-I 25 W/m 5,1 km/h (1 Bft)
31.01.2014 16:38 6,1 C 3,3 C 82 % 1006,1 hPa 0,0 l/m 0 min 0 min 0,0 UV-I 25 W/m 0,0 km/h (0 Bft)
31.01.2014 16:40 6,0 C 3,3 C 82 % 1006,1 hPa 0,0 l/m 0 min 0 min 0,0 UV-I 25 W/m 2,6 km/h (1 Bft)
31.01.2014 16:42 5,9 C 3,3 C 82 % 1006,1 hPa 0,0 l/m 0 min 0 min 0,0 UV-I 25 W/m 2,6 km/h (1 Bft)
31.01.2014 16:44 5,9 C 3,3 C 82 % 1006,1 hPa 0,0 l/m 0 min 0 min 0,0 UV-I 23 W/m 0,0 km/h (0 Bft)
31.01.2014 16:46 5,9 C 3,3 C 82 % 1006,2 hPa 0,0 l/m 0 min 0 min 0,0 UV-I 23 W/m 10,3 km/h (2 Bft)
31.01.2014 16:48 5,8 C 3,3 C 82 % 1006,2 hPa 0,0 l/m 0 min 0 min 0,0 UV-I 21 W/m 7,7 km/h (2 Bft)
31.01.2014 16:50 5,8 C 3,3 C 82 % 1006,2 hPa 0,0 l/m 0 min 0 min 0,0 UV-I 19 W/m 2,6 km/h (1 Bft)
31.01.2014 16:52 5,8 C 3,3 C 82 % 1006,1 hPa 0,0 l/m 0 min 0 min 0,0 UV-I 19 W/m 10,3 km/h (2 Bft)
31.01.2014 16:54 5,8 C 3,3 C 82 % 1006,1 hPa 0,0 l/m 0 min 0 min 0,0 UV-I 16 W/m 5,1 km/h (1 Bft)
31.01.2014 16:56 5,7 C 3,3 C 82 % 1006,2 hPa 0,0 l/m 0 min 0 min 0,0 UV-I 14 W/m 0,0 km/h (0 Bft)
31.01.2014 16:58 5,7 C 3,3 C 82 % 1006,2 hPa 0,0 l/m 0 min 0 min 0,0 UV-I 14 W/m 0,0 km/h (0 Bft)
31.01.2014 17:00 5,7 C 2,8 C 82 % 1006,1 hPa 0,0 l/m 0 min 0 min 0,0 UV-I 12 W/m 0,0 km/h (0 Bft)
31.01.2014 17:02 5,6 C 2,8 C 82 % 1006,1 hPa 0,0 l/m 0 min 0 min 0,0 UV-I 12 W/m 0,0 km/h (0 Bft)
31.01.2014 17:04 5,6 C 2,8 C 82 % 1006,1 hPa 0,0 l/m 0 min 0 min 0,0 UV-I 11 W/m 0,0 km/h (0 Bft)
31.01.2014 17:06 5,5 C 2,8 C 82 % 1006,1 hPa 0,0 l/m 0 min 0 min 0,0 UV-I 11 W/m 0,0 km/h (0 Bft)
31.01.2014 17:08 5,5 C 2,8 C 82 % 1006,1 hPa 0,0 l/m 0 min 0 min 0,0 UV-I 9 W/m 0,0 km/h (0 Bft)
31.01.2014 17:10 5,4 C 2,8 C 82 % 1006,0 hPa 0,0 l/m 0 min 0 min 0,0 UV-I 9 W/m 0,0 km/h (0 Bft)
31.01.2014 17:12 5,4 C 2,8 C 82 % 1006,0 hPa 0,0 l/m 0 min 0 min 0,0 UV-I 7 W/m 0,0 km/h (0 Bft)
31.01.2014 17:14 5,3 C 2,2 C 82 % 1006,1 hPa 0,0 l/m 0 min 0 min 0,0 UV-I 7 W/m 0,0 km/h (0 Bft)
31.01.2014 17:16 5,3 C 2,2 C 82 % 1006,0 hPa 0,0 l/m 0 min 0 min 0,0 UV-I 7 W/m 0,0 km/h (0 Bft)
31.01.2014 17:18 5,3 C 2,2 C 82 % 1006,0 hPa 0,0 l/m 0 min 0 min 0,0 UV-I 5 W/m 0,0 km/h (0 Bft)
31.01.2014 17:20 5,2 C 2,2 C 82 % 1005,9 hPa 0,0 l/m 0 min 0 min 0,0 UV-I 0 W/m 0,0 km/h (0 Bft)
31.01.2014 17:22 5,2 C 2,2 C 82 % 1005,9 hPa 0,0 l/m 0 min 0 min 0,0 UV-I 0 W/m 0,0 km/h (0 Bft)
31.01.2014 17:24 5,2 C 2,2 C 82 % 1005,9 hPa 0,0 l/m 0 min 0 min 0,0 UV-I 0 W/m 0,0 km/h (0 Bft)
31.01.2014 17:26 5,1 C 2,2 C 82 % 1005,8 hPa 0,0 l/m 0 min 0 min 0,0 UV-I 0 W/m 0,0 km/h (0 Bft)
31.01.2014 17:28 5,1 C 2,2 C 82 % 1005,8 hPa 0,0 l/m 0 min 0 min 0,0 UV-I 0 W/m 0,0 km/h (0 Bft)
31.01.2014 17:30 5,1 C 2,2 C 82 % 1005,7 hPa 0,0 l/m 0 min 0 min 0,0 UV-I 0 W/m 0,0 km/h (0 Bft)
31.01.2014 17:32 5,1 C 2,2 C 82 % 1005,8 hPa 0,0 l/m 0 min 0 min 0,0 UV-I 0 W/m 0,0 km/h (0 Bft)
31.01.2014 17:34 5,0 C 2,2 C 83 % 1005,9 hPa 0,0 l/m 0 min 0 min 0,0 UV-I 0 W/m 0,0 km/h (0 Bft)
31.01.2014 17:36 5,0 C 2,2 C 83 % 1005,8 hPa 0,0 l/m 0 min 0 min 0,0 UV-I 0 W/m 0,0 km/h (0 Bft)
31.01.2014 17:38 5,0 C 2,2 C 83 % 1005,8 hPa 0,0 l/m 0 min 0 min 0,0 UV-I 0 W/m 0,0 km/h (0 Bft)
31.01.2014 17:40 5,0 C 2,2 C 83 % 1005,8 hPa 0,0 l/m 0 min 0 min 0,0 UV-I 0 W/m 0,0 km/h (0 Bft)
31.01.2014 17:42 4,9 C 2,2 C 83 % 1005,9 hPa 0,0 l/m 0 min 0 min 0,0 UV-I 0 W/m 0,0 km/h (0 Bft)
31.01.2014 17:44 4,9 C 2,2 C 83 % 1005,9 hPa 0,0 l/m 0 min 0 min 0,0 UV-I 0 W/m 0,0 km/h (0 Bft)
31.01.2014 17:46 4,9 C 2,2 C 83 % 1005,9 hPa 0,0 l/m 0 min 0 min 0,0 UV-I 0 W/m 0,0 km/h (0 Bft)
31.01.2014 17:48 4,9 C 1,7 C 83 % 1005,7 hPa 0,0 l/m 0 min 0 min 0,0 UV-I 0 W/m 0,0 km/h (0 Bft)
31.01.2014 17:50 4,8 C 1,7 C 83 % 1005,7 hPa 0,0 l/m 0 min 0 min 0,0 UV-I 0 W/m 0,0 km/h (0 Bft)
31.01.2014 17:52 4,8 C 1,7 C 83 % 1005,7 hPa 0,0 l/m 0 min 0 min 0,0 UV-I 0 W/m 0,0 km/h (0 Bft)
31.01.2014 17:54 4,8 C 1,7 C 83 % 1005,7 hPa 0,0 l/m 0 min 0 min 0,0 UV-I 0 W/m 0,0 km/h (0 Bft)
31.01.2014 17:56 4,8 C 1,7 C 83 % 1005,7 hPa 0,0 l/m 0 min 0 min 0,0 UV-I 0 W/m 0,0 km/h (0 Bft)
31.01.2014 17:58 4,7 C 2,2 C 83 % 1005,7 hPa 0,0 l/m 0 min 0 min 0,0 UV-I 0 W/m 10,3 km/h (2 Bft)
31.01.2014 18:00 4,7 C 2,2 C 83 % 1005,6 hPa 0,0 l/m 0 min 0 min 0,0 UV-I 0 W/m 12,9 km/h (3 Bft)
31.01.2014 18:02 4,7 C 2,2 C 83 % 1005,6 hPa 0,0 l/m 0 min 0 min 0,0 UV-I 0 W/m 10,3 km/h (2 Bft)
31.01.2014 18:04 4,7 C 2,2 C 84 % 1005,6 hPa 0,0 l/m 0 min 0 min 0,0 UV-I 0 W/m 10,3 km/h (2 Bft)
31.01.2014 18:06 4,7 C 2,2 C 83 % 1005,7 hPa 0,0 l/m 0 min 0 min 0,0 UV-I 0 W/m 7,7 km/h (2 Bft)
31.01.2014 18:08 4,8 C 2,2 C 83 % 1005,7 hPa 0,0 l/m 0 min 0 min 0,0 UV-I 0 W/m 10,3 km/h (2 Bft)
31.01.2014 18:10 4,8 C 2,2 C 84 % 1005,7 hPa 0,0 l/m 0 min 0 min 0,0 UV-I 0 W/m 12,9 km/h (3 Bft)
31.01.2014 18:12 4,8 C 2,2 C 84 % 1005,8 hPa 0,0 l/m 0 min 0 min 0,0 UV-I 0 W/m 15,4 km/h (3 Bft)
31.01.2014 18:14 4,8 C 2,8 C 83 % 1005,7 hPa 0,0 l/m 0 min 0 min 0,0 UV-I 0 W/m 10,3 km/h (2 Bft)
31.01.2014 18:16 4,8 C 2,8 C 84 % 1005,7 hPa 0,0 l/m 0 min 0 min 0,0 UV-I 0 W/m 10,3 km/h (2 Bft)
31.01.2014 18:18 4,8 C 2,8 C 84 % 1005,6 hPa 0,0 l/m 0 min 0 min 0,0 UV-I 0 W/m 20,6 km/h (4 Bft)
31.01.2014 18:20 4,8 C 2,8 C 84 % 1005,6 hPa 0,0 l/m 0 min 0 min 0,0 UV-I 0 W/m 15,4 km/h (3 Bft)
31.01.2014 18:22 4,8 C 2,8 C 84 % 1005,6 hPa 0,0 l/m 0 min 0 min 0,0 UV-I 0 W/m 12,9 km/h (3 Bft)
31.01.2014 18:24 4,8 C 2,8 C 84 % 1005,6 hPa 0,0 l/m 0 min 0 min 0,0 UV-I 0 W/m 12,9 km/h (3 Bft)
31.01.2014 18:26 4,8 C 2,8 C 84 % 1005,5 hPa 0,0 l/m 0 min 0 min 0,0 UV-I 0 W/m 18,0 km/h (3 Bft)
31.01.2014 18:28 4,8 C 2,8 C 83 % 1005,6 hPa 0,0 l/m 0 min 0 min 0,0 UV-I 0 W/m 18,0 km/h (3 Bft)
31.01.2014 18:30 4,8 C 2,8 C 83 % 1005,6 hPa 0,0 l/m 0 min 0 min 0,0 UV-I 0 W/m 12,9 km/h (3 Bft)
31.01.2014 18:32 4,8 C 2,8 C 83 % 1005,6 hPa 0,0 l/m 0 min 0 min 0,0 UV-I 0 W/m 15,4 km/h (3 Bft)
31.01.2014 18:34 4,7 C 2,8 C 83 % 1005,6 hPa 0,0 l/m 0 min 0 min 0,0 UV-I 0 W/m 15,4 km/h (3 Bft)
31.01.2014 18:36 4,7 C 2,8 C 84 % 1005,6 hPa 0,0 l/m 0 min 0 min 0,0 UV-I 0 W/m 15,4 km/h (3 Bft)
31.01.2014 18:38 4,7 C 2,8 C 83 % 1005,6 hPa 0,0 l/m 0 min 0 min 0,0 UV-I 0 W/m 15,4 km/h (3 Bft)
31.01.2014 18:40 4,7 C 2,8 C 83 % 1005,6 hPa 0,0 l/m 0 min 0 min 0,0 UV-I 0 W/m 18,0 km/h (3 Bft)
31.01.2014 18:42 4,7 C 2,8 C 83 % 1005,6 hPa 0,0 l/m 0 min 0 min 0,0 UV-I 0 W/m 23,2 km/h (4 Bft)
31.01.2014 18:44 4,7 C 2,8 C 84 % 1005,5 hPa 0,0 l/m 0 min 0 min 0,0 UV-I 0 W/m 12,9 km/h (3 Bft)
31.01.2014 18:46 4,7 C 2,8 C 84 % 1005,5 hPa 0,0 l/m 0 min 0 min 0,0 UV-I 0 W/m 20,6 km/h (4 Bft)
31.01.2014 18:48 4,6 C 2,8 C 84 % 1005,5 hPa 0,0 l/m 0 min 0 min 0,0 UV-I 0 W/m 10,3 km/h (2 Bft)
31.01.2014 18:50 4,6 C 2,8 C 84 % 1005,5 hPa 0,0 l/m 0 min 0 min 0,0 UV-I 0 W/m 18,0 km/h (3 Bft)
31.01.2014 18:52 4,6 C 2,8 C 84 % 1005,4 hPa 0,0 l/m 0 min 0 min 0,0 UV-I 0 W/m 15,4 km/h (3 Bft)
31.01.2014 18:54 4,5 C 2,8 C 84 % 1005,5 hPa 0,0 l/m 0 min 0 min 0,0 UV-I 0 W/m 10,3 km/h (2 Bft)
31.01.2014 18:56 4,4 C 2,2 C 84 % 1005,4 hPa 0,0 l/m 0 min 0 min 0,0 UV-I 0 W/m 10,3 km/h (2 Bft)
31.01.2014 18:58 4,4 C 2,2 C 84 % 1005,4 hPa 0,0 l/m 0 min 0 min 0,0 UV-I 0 W/m 15,4 km/h (3 Bft)
31.01.2014 19:00 4,4 C 2,2 C 84 % 1005,4 hPa 0,0 l/m 0 min 0 min 0,0 UV-I 0 W/m 15,4 km/h (3 Bft)
31.01.2014 19:02 4,3 C 2,2 C 84 % 1005,3 hPa 0,0 l/m 0 min 0 min 0,0 UV-I 0 W/m 15,4 km/h (3 Bft)
31.01.2014 19:04 4,3 C 2,2 C 85 % 1005,4 hPa 0,0 l/m 0 min 0 min 0,0 UV-I 0 W/m 12,9 km/h (3 Bft)
31.01.2014 19:06 4,3 C 2,2 C 85 % 1005,4 hPa 0,0 l/m 0 min 0 min 0,0 UV-I 0 W/m 12,9 km/h (3 Bft)
31.01.2014 19:08 4,3 C 2,2 C 85 % 1005,3 hPa 0,0 l/m 0 min 0 min 0,0 UV-I 0 W/m 12,9 km/h (3 Bft)
31.01.2014 19:10 4,3 C 2,2 C 85 % 1005,4 hPa 0,0 l/m 0 min 0 min 0,0 UV-I 0 W/m 12,9 km/h (3 Bft)
31.01.2014 19:12 4,3 C 2,2 C 85 % 1005,3 hPa 0,0 l/m 0 min 0 min 0,0 UV-I 0 W/m 12,9 km/h (3 Bft)
31.01.2014 19:14 4,3 C 2,2 C 85 % 1005,2 hPa 0,0 l/m 0 min 0 min 0,0 UV-I 0 W/m 15,4 km/h (3 Bft)
31.01.2014 19:16 4,3 C 2,2 C 85 % 1005,2 hPa 0,0 l/m 0 min 0 min 0,0 UV-I 0 W/m 15,4 km/h (3 Bft)
31.01.2014 19:18 4,2 C 2,2 C 85 % 1005,2 hPa 0,0 l/m 0 min 0 min 0,0 UV-I 0 W/m 12,9 km/h (3 Bft)
31.01.2014 19:20 4,2 C 2,2 C 85 % 1005,2 hPa 0,0 l/m 0 min 0 min 0,0 UV-I 0 W/m 12,9 km/h (3 Bft)
31.01.2014 19:22 4,2 C 2,2 C 85 % 1005,2 hPa 0,0 l/m 0 min 0 min 0,0 UV-I 0 W/m 12,9 km/h (3 Bft)
31.01.2014 19:24 4,2 C 2,2 C 85 % 1005,2 hPa 0,0 l/m 0 min 0 min 0,0 UV-I 0 W/m 15,4 km/h (3 Bft)
31.01.2014 19:26 4,2 C 2,2 C 85 % 1005,2 hPa 0,0 l/m 0 min 0 min 0,0 UV-I 0 W/m 12,9 km/h (3 Bft)
31.01.2014 19:28 4,2 C 2,2 C 85 % 1005,1 hPa 0,0 l/m 0 min 0 min 0,0 UV-I 0 W/m 15,4 km/h (3 Bft)
31.01.2014 19:30 4,2 C 2,2 C 85 % 1005,0 hPa 0,0 l/m 0 min 0 min 0,0 UV-I 0 W/m 15,4 km/h (3 Bft)
31.01.2014 19:32 4,2 C 2,2 C 85 % 1005,0 hPa 0,0 l/m 0 min 0 min 0,0 UV-I 0 W/m 12,9 km/h (3 Bft)
31.01.2014 19:34 4,2 C 2,2 C 85 % 1004,9 hPa 0,0 l/m 0 min 0 min 0,0 UV-I 0 W/m 12,9 km/h (3 Bft)
31.01.2014 19:36 4,2 C 2,2 C 85 % 1004,9 hPa 0,0 l/m 0 min 0 min 0,0 UV-I 0 W/m 18,0 km/h (3 Bft)
31.01.2014 19:38 4,2 C 2,2 C 85 % 1004,8 hPa 0,0 l/m 0 min 0 min 0,0 UV-I 0 W/m 20,6 km/h (4 Bft)
31.01.2014 19:40 4,2 C 2,2 C 85 % 1004,8 hPa 0,0 l/m 0 min 0 min 0,0 UV-I 0 W/m 23,2 km/h (4 Bft)
31.01.2014 19:42 4,3 C 2,8 C 85 % 1004,7 hPa 0,0 l/m 0 min 0 min 0,0 UV-I 0 W/m 25,7 km/h (4 Bft)
31.01.2014 19:44 4,3 C 2,8 C 85 % 1004,6 hPa 0,0 l/m 0 min 0 min 0,0 UV-I 0 W/m 20,6 km/h (4 Bft)
31.01.2014 19:46 4,4 C 2,8 C 85 % 1004,6 hPa 0,0 l/m 0 min 0 min 0,0 UV-I 0 W/m 18,0 km/h (3 Bft)
31.01.2014 19:48 4,4 C 2,8 C 84 % 1004,5 hPa 0,0 l/m 0 min 0 min 0,0 UV-I 0 W/m 18,0 km/h (3 Bft)
31.01.2014 19:50 4,5 C 2,8 C 84 % 1004,4 hPa 0,0 l/m 0 min 0 min 0,0 UV-I 0 W/m 15,4 km/h (3 Bft)
31.01.2014 19:52 4,5 C 2,8 C 84 % 1004,4 hPa 0,0 l/m 0 min 0 min 0,0 UV-I 0 W/m 18,0 km/h (3 Bft)
31.01.2014 19:54 4,6 C 2,8 C 84 % 1004,4 hPa 0,0 l/m 0 min 0 min 0,0 UV-I 0 W/m 23,2 km/h (4 Bft)
31.01.2014 19:56 4,7 C 2,8 C 83 % 1004,5 hPa 0,0 l/m 0 min 0 min 0,0 UV-I 0 W/m 20,6 km/h (4 Bft)
31.01.2014 19:58 4,7 C 2,8 C 83 % 1004,5 hPa 0,0 l/m 0 min 0 min 0,0 UV-I 0 W/m 12,9 km/h (3 Bft)
31.01.2014 20:00 4,7 C 2,8 C 83 % 1004,5 hPa 0,0 l/m 0 min 0 min 0,0 UV-I 0 W/m 12,9 km/h (3 Bft)
31.01.2014 20:02 4,7 C 2,8 C 83 % 1004,6 hPa 0,0 l/m 0 min 0 min 0,0 UV-I 0 W/m 15,4 km/h (3 Bft)
31.01.2014 20:04 4,6 C 2,8 C 83 % 1004,5 hPa 0,0 l/m 0 min 0 min 0,0 UV-I 0 W/m 15,4 km/h (3 Bft)
31.01.2014 20:06 4,6 C 2,8 C 83 % 1004,4 hPa 0,0 l/m 0 min 0 min 0,0 UV-I 0 W/m 23,2 km/h (4 Bft)
31.01.2014 20:08 4,6 C 2,8 C 83 % 1004,3 hPa 0,0 l/m 0 min 0 min 0,0 UV-I 0 W/m 18,0 km/h (3 Bft)
31.01.2014 20:10 4,6 C 2,8 C 83 % 1004,3 hPa 0,0 l/m 0 min 0 min 0,0 UV-I 0 W/m 15,4 km/h (3 Bft)
31.01.2014 20:12 4,5 C 2,8 C 83 % 1004,3 hPa 0,0 l/m 0 min 0 min 0,0 UV-I 0 W/m 15,4 km/h (3 Bft)
31.01.2014 20:14 4,5 C 2,8 C 83 % 1004,3 hPa 0,0 l/m 0 min 0 min 0,0 UV-I 0 W/m 25,7 km/h (4 Bft)
31.01.2014 20:16 4,4 C 2,8 C 83 % 1004,3 hPa 0,0 l/m 0 min 0 min 0,0 UV-I 0 W/m 18,0 km/h (3 Bft)
31.01.2014 20:18 4,4 C 2,8 C 83 % 1004,4 hPa 0,0 l/m 0 min 0 min 0,0 UV-I 0 W/m 15,4 km/h (3 Bft)
31.01.2014 20:20 4,4 C 2,8 C 83 % 1004,3 hPa 0,0 l/m 0 min 0 min 0,0 UV-I 0 W/m 12,9 km/h (3 Bft)
31.01.2014 20:22 4,3 C 2,2 C 83 % 1004,3 hPa 0,0 l/m 0 min 0 min 0,0 UV-I 0 W/m 15,4 km/h (3 Bft)
31.01.2014 20:24 4,3 C 2,2 C 84 % 1004,2 hPa 0,0 l/m 0 min 0 min 0,0 UV-I 0 W/m 12,9 km/h (3 Bft)
31.01.2014 20:26 4,3 C 2,2 C 84 % 1004,2 hPa 0,0 l/m 0 min 0 min 0,0 UV-I 0 W/m 12,9 km/h (3 Bft)
31.01.2014 20:28 4,2 C 2,2 C 84 % 1004,2 hPa 0,0 l/m 0 min 0 min 0,0 UV-I 0 W/m 15,4 km/h (3 Bft)
31.01.2014 20:30 4,2 C 2,2 C 84 % 1004,1 hPa 0,0 l/m 0 min 0 min 0,0 UV-I 0 W/m 15,4 km/h (3 Bft)
31.01.2014 20:32 4,2 C 2,2 C 84 % 1004,0 hPa 0,0 l/m 0 min 0 min 0,0 UV-I 0 W/m 15,4 km/h (3 Bft)
31.01.2014 20:34 4,1 C 2,2 C 84 % 1004,0 hPa 0,0 l/m 0 min 0 min 0,0 UV-I 0 W/m 18,0 km/h (3 Bft)
31.01.2014 20:36 4,1 C 2,2 C 84 % 1004,1 hPa 0,0 l/m 0 min 0 min 0,0 UV-I 0 W/m 23,2 km/h (4 Bft)
31.01.2014 20:38 4,1 C 2,2 C 84 % 1004,0 hPa 0,0 l/m 0 min 0 min 0,0 UV-I 0 W/m 20,6 km/h (4 Bft)
31.01.2014 20:40 4,1 C 2,2 C 84 % 1004,2 hPa 0,0 l/m 0 min 0 min 0,0 UV-I 0 W/m 20,6 km/h (4 Bft)
31.01.2014 20:42 4,1 C 2,2 C 84 % 1004,2 hPa 0,0 l/m 0 min 0 min 0,0 UV-I 0 W/m 15,4 km/h (3 Bft)
31.01.2014 20:44 4,1 C 2,2 C 84 % 1004,2 hPa 0,0 l/m 0 min 0 min 0,0 UV-I 0 W/m 12,9 km/h (3 Bft)
31.01.2014 20:46 4,1 C 2,2 C 84 % 1004,2 hPa 0,0 l/m 0 min 0 min 0,0 UV-I 0 W/m 20,6 km/h (4 Bft)
31.01.2014 20:48 4,1 C 2,2 C 84 % 1004,1 hPa 0,0 l/m 0 min 0 min 0,0 UV-I 0 W/m 12,9 km/h (3 Bft)
31.01.2014 20:50 4,1 C 2,2 C 84 % 1004,2 hPa 0,0 l/m 0 min 0 min 0,0 UV-I 0 W/m 15,4 km/h (3 Bft)
31.01.2014 20:52 4,1 C 2,2 C 84 % 1004,2 hPa 0,0 l/m 0 min 0 min 0,0 UV-I 0 W/m 10,3 km/h (2 Bft)
31.01.2014 20:54 4,1 C 2,2 C 84 % 1004,2 hPa 0,0 l/m 0 min 0 min 0,0 UV-I 0 W/m 18,0 km/h (3 Bft)
31.01.2014 20:56 4,1 C 2,2 C 84 % 1004,2 hPa 0,0 l/m 0 min 0 min 0,0 UV-I 0 W/m 18,0 km/h (3 Bft)
31.01.2014 20:58 4,1 C 2,2 C 84 % 1004,0 hPa 0,0 l/m 0 min 0 min 0,0 UV-I 0 W/m 15,4 km/h (3 Bft)
31.01.2014 21:00 4,1 C 2,2 C 84 % 1003,9 hPa 0,0 l/m 0 min 0 min 0,0 UV-I 0 W/m 18,0 km/h (3 Bft)
31.01.2014 21:02 4,1 C 2,2 C 84 % 1003,9 hPa 0,0 l/m 0 min 0 min 0,0 UV-I 0 W/m 15,4 km/h (3 Bft)
31.01.2014 21:04 4,1 C 2,2 C 84 % 1003,8 hPa 0,0 l/m 0 min 0 min 0,0 UV-I 0 W/m 20,6 km/h (4 Bft)
31.01.2014 21:06 4,1 C 2,8 C 84 % 1003,9 hPa 0,0 l/m 0 min 0 min 0,0 UV-I 0 W/m 18,0 km/h (3 Bft)
31.01.2014 21:08 4,2 C 2,8 C 84 % 1003,9 hPa 0,0 l/m 0 min 0 min 0,0 UV-I 0 W/m 25,7 km/h (4 Bft)
31.01.2014 21:10 4,2 C 2,8 C 84 % 1003,8 hPa 0,0 l/m 0 min 0 min 0,0 UV-I 0 W/m 18,0 km/h (3 Bft)
31.01.2014 21:12 4,2 C 2,8 C 84 % 1003,8 hPa 0,0 l/m 0 min 0 min 0,0 UV-I 0 W/m 18,0 km/h (3 Bft)
31.01.2014 21:14 4,2 C 2,8 C 84 % 1003,7 hPa 0,0 l/m 0 min 0 min 0,0 UV-I 0 W/m 23,2 km/h (4 Bft)
31.01.2014 21:16 4,2 C 2,8 C 84 % 1003,7 hPa 0,0 l/m 0 min 0 min 0,0 UV-I 0 W/m 25,7 km/h (4 Bft)
31.01.2014 21:18 4,2 C 2,8 C 84 % 1003,7 hPa 0,0 l/m 0 min 0 min 0,0 UV-I 0 W/m 15,4 km/h (3 Bft)
31.01.2014 21:20 4,2 C 2,8 C 84 % 1003,6 hPa 0,0 l/m 0 min 0 min 0,0 UV-I 0 W/m 30,9 km/h (5 Bft)
31.01.2014 21:22 4,2 C 2,8 C 84 % 1003,5 hPa 0,0 l/m 0 min 0 min 0,0 UV-I 0 W/m 28,3 km/h (4 Bft)
31.01.2014 21:24 4,2 C 2,8 C 84 % 1003,4 hPa 0,0 l/m 0 min 0 min 0,0 UV-I 0 W/m 33,5 km/h (5 Bft)
31.01.2014 21:26 4,2 C 2,8 C 84 % 1003,4 hPa 0,0 l/m 0 min 0 min 0,0 UV-I 0 W/m 28,3 km/h (4 Bft)
31.01.2014 21:28 4,2 C 2,8 C 83 % 1003,4 hPa 0,0 l/m 0 min 0 min 0,0 UV-I 0 W/m 25,7 km/h (4 Bft)
31.01.2014 21:30 4,2 C 2,8 C 83 % 1003,4 hPa 0,0 l/m 0 min 0 min 0,0 UV-I 0 W/m 28,3 km/h (4 Bft)
31.01.2014 21:32 4,2 C 2,8 C 83 % 1003,2 hPa 0,0 l/m 0 min 0 min 0,0 UV-I 0 W/m 36,0 km/h (5 Bft)
31.01.2014 21:34 4,2 C 2,8 C 83 % 1003,1 hPa 0,0 l/m 0 min 0 min 0,0 UV-I 0 W/m 23,2 km/h (4 Bft)
31.01.2014 21:36 4,2 C 2,8 C 83 % 1003,0 hPa 0,0 l/m 0 min 0 min 0,0 UV-I 0 W/m 20,6 km/h (4 Bft)
31.01.2014 21:38 4,2 C 2,8 C 83 % 1003,0 hPa 0,0 l/m 0 min 0 min 0,0 UV-I 0 W/m 20,6 km/h (4 Bft)
31.01.2014 21:40 4,2 C 2,8 C 83 % 1002,9 hPa 0,0 l/m 0 min 0 min 0,0 UV-I 0 W/m 18,0 km/h (3 Bft)
31.01.2014 21:42 4,2 C 2,8 C 83 % 1003,0 hPa 0,0 l/m 0 min 0 min 0,0 UV-I 0 W/m 23,2 km/h (4 Bft)
31.01.2014 21:44 4,2 C 2,8 C 83 % 1002,9 hPa 0,0 l/m 0 min 0 min 0,0 UV-I 0 W/m 25,7 km/h (4 Bft)
31.01.2014 21:46 4,2 C 2,8 C 83 % 1002,9 hPa 0,0 l/m 0 min 0 min 0,0 UV-I 0 W/m 23,2 km/h (4 Bft)
31.01.2014 21:48 4,2 C 2,8 C 83 % 1002,8 hPa 0,0 l/m 0 min 0 min 0,0 UV-I 0 W/m 18,0 km/h (3 Bft)
31.01.2014 21:50 4,2 C 2,8 C 82 % 1002,7 hPa 0,0 l/m 0 min 0 min 0,0 UV-I 0 W/m 30,9 km/h (5 Bft)
31.01.2014 21:52 4,2 C 2,8 C 82 % 1002,7 hPa 0,0 l/m 0 min 0 min 0,0 UV-I 0 W/m 25,7 km/h (4 Bft)
31.01.2014 21:54 4,2 C 2,8 C 82 % 1002,7 hPa 0,0 l/m 0 min 0 min 0,0 UV-I 0 W/m 18,0 km/h (3 Bft)
31.01.2014 21:56 4,2 C 2,8 C 82 % 1002,7 hPa 0,0 l/m 0 min 0 min 0,0 UV-I 0 W/m 23,2 km/h (4 Bft)
31.01.2014 21:58 4,2 C 2,8 C 82 % 1002,7 hPa 0,0 l/m 0 min 0 min 0,0 UV-I 0 W/m 28,3 km/h (4 Bft)
31.01.2014 22:00 4,2 C 2,8 C 82 % 1002,7 hPa 0,0 l/m 0 min 0 min 0,0 UV-I 0 W/m 28,3 km/h (4 Bft)
31.01.2014 22:02 4,2 C 2,8 C 82 % 1002,7 hPa 0,0 l/m 0 min 0 min 0,0 UV-I 0 W/m 25,7 km/h (4 Bft)
31.01.2014 22:04 4,2 C 2,8 C 82 % 1002,7 hPa 0,0 l/m 0 min 0 min 0,0 UV-I 0 W/m 25,7 km/h (4 Bft)
31.01.2014 22:06 4,2 C 2,8 C 82 % 1002,7 hPa 0,0 l/m 0 min 0 min 0,0 UV-I 0 W/m 28,3 km/h (4 Bft)
31.01.2014 22:08 4,2 C 2,8 C 82 % 1002,8 hPa 0,0 l/m 0 min 0 min 0,0 UV-I 0 W/m 30,9 km/h (5 Bft)
31.01.2014 22:10 4,2 C 2,8 C 82 % 1002,8 hPa 0,0 l/m 0 min 0 min 0,0 UV-I 0 W/m 28,3 km/h (4 Bft)
31.01.2014 22:12 4,2 C 2,8 C 82 % 1002,8 hPa 0,0 l/m 0 min 0 min 0,0 UV-I 0 W/m 30,9 km/h (5 Bft)
31.01.2014 22:14 4,2 C 2,8 C 82 % 1002,7 hPa 0,0 l/m 0 min 0 min 0,0 UV-I 0 W/m 25,7 km/h (4 Bft)
31.01.2014 22:16 4,2 C 2,8 C 82 % 1002,6 hPa 0,0 l/m 0 min 0 min 0,0 UV-I 0 W/m 28,3 km/h (4 Bft)
31.01.2014 22:18 4,2 C 2,8 C 82 % 1002,5 hPa 0,0 l/m 0 min 0 min 0,0 UV-I 0 W/m 23,2 km/h (4 Bft)
31.01.2014 22:20 4,2 C 2,8 C 82 % 1002,3 hPa 0,0 l/m 0 min 0 min 0,0 UV-I 0 W/m 33,5 km/h (5 Bft)
31.01.2014 22:22 4,2 C 2,8 C 82 % 1002,3 hPa 0,0 l/m 0 min 0 min 0,0 UV-I 0 W/m 30,9 km/h (5 Bft)
31.01.2014 22:24 4,2 C 2,8 C 82 % 1002,4 hPa 0,0 l/m 0 min 0 min 0,0 UV-I 0 W/m 23,2 km/h (4 Bft)
31.01.2014 22:26 4,2 C 2,8 C 82 % 1002,5 hPa 0,0 l/m 0 min 0 min 0,0 UV-I 0 W/m 20,6 km/h (4 Bft)
31.01.2014 22:28 4,1 C 2,8 C 82 % 1002,4 hPa 0,0 l/m 0 min 0 min 0,0 UV-I 0 W/m 20,6 km/h (4 Bft)
31.01.2014 22:30 4,1 C 2,8 C 82 % 1002,5 hPa 0,0 l/m 0 min 0 min 0,0 UV-I 0 W/m 36,0 km/h (5 Bft)
31.01.2014 22:32 4,1 C 2,8 C 82 % 1002,5 hPa 0,0 l/m 0 min 0 min 0,0 UV-I 0 W/m 20,6 km/h (4 Bft)
31.01.2014 22:34 4,2 C 2,8 C 82 % 1002,5 hPa 0,0 l/m 0 min 0 min 0,0 UV-I 0 W/m 23,2 km/h (4 Bft)
31.01.2014 22:36 4,2 C 2,8 C 82 % 1002,5 hPa 0,0 l/m 0 min 0 min 0,0 UV-I 0 W/m 30,9 km/h (5 Bft)
31.01.2014 22:38 4,2 C 2,8 C 82 % 1002,5 hPa 0,0 l/m 0 min 0 min 0,0 UV-I 0 W/m 23,2 km/h (4 Bft)
31.01.2014 22:40 4,1 C 2,8 C 82 % 1002,5 hPa 0,0 l/m 0 min 0 min 0,0 UV-I 0 W/m 25,7 km/h (4 Bft)
31.01.2014 22:42 4,1 C 2,8 C 82 % 1002,3 hPa 0,0 l/m 0 min 0 min 0,0 UV-I 0 W/m 15,4 km/h (3 Bft)
31.01.2014 22:44 4,1 C 2,8 C 82 % 1002,2 hPa 0,0 l/m 0 min 0 min 0,0 UV-I 0 W/m 28,3 km/h (4 Bft)
31.01.2014 22:46 4,1 C 2,8 C 82 % 1002,2 hPa 0,0 l/m 0 min 0 min 0,0 UV-I 0 W/m 25,7 km/h (4 Bft)
31.01.2014 22:48 4,1 C 2,8 C 82 % 1002,1 hPa 0,0 l/m 0 min 0 min 0,0 UV-I 0 W/m 25,7 km/h (4 Bft)
31.01.2014 22:50 4,1 C 2,8 C 82 % 1002,1 hPa 0,0 l/m 0 min 0 min 0,0 UV-I 0 W/m 25,7 km/h (4 Bft)
31.01.2014 22:52 4,1 C 2,8 C 82 % 1002,0 hPa 0,0 l/m 0 min 0 min 0,0 UV-I 0 W/m 25,7 km/h (4 Bft)
31.01.2014 22:54 4,1 C 2,8 C 82 % 1001,9 hPa 0,0 l/m 0 min 0 min 0,0 UV-I 0 W/m 28,3 km/h (4 Bft)
31.01.2014 22:56 4,0 C 2,8 C 82 % 1001,9 hPa 0,0 l/m 0 min 0 min 0,0 UV-I 0 W/m 20,6 km/h (4 Bft)
31.01.2014 22:58 4,0 C 2,8 C 82 % 1001,8 hPa 0,0 l/m 0 min 0 min 0,0 UV-I 0 W/m 25,7 km/h (4 Bft)
31.01.2014 23:00 3,9 C 2,8 C 82 % 1001,7 hPa 0,0 l/m 0 min 0 min 0,0 UV-I 0 W/m 28,3 km/h (4 Bft)
31.01.2014 23:02 3,9 C 2,8 C 83 % 1001,7 hPa 0,0 l/m 0 min 0 min 0,0 UV-I 0 W/m 25,7 km/h (4 Bft)
31.01.2014 23:04 3,9 C 2,2 C 83 % 1001,7 hPa 0,0 l/m 0 min 0 min 0,0 UV-I 0 W/m 30,9 km/h (5 Bft)
31.01.2014 23:06 3,9 C 2,2 C 82 % 1001,9 hPa 0,0 l/m 0 min 0 min 0,0 UV-I 0 W/m 18,0 km/h (3 Bft)
31.01.2014 23:08 3,9 C 2,2 C 83 % 1001,9 hPa 0,0 l/m 0 min 0 min 0,0 UV-I 0 W/m 23,2 km/h (4 Bft)
31.01.2014 23:10 3,9 C 2,8 C 83 % 1001,9 hPa 0,0 l/m 0 min 0 min 0,0 UV-I 0 W/m 30,9 km/h (5 Bft)
31.01.2014 23:12 3,9 C 2,2 C 83 % 1001,8 hPa 0,0 l/m 0 min 0 min 0,0 UV-I 0 W/m 25,7 km/h (4 Bft)
31.01.2014 23:14 3,9 C 2,8 C 83 % 1001,8 hPa 0,0 l/m 0 min 0 min 0,0 UV-I 0 W/m 25,7 km/h (4 Bft)
31.01.2014 23:16 3,9 C 2,2 C 83 % 1001,7 hPa 0,0 l/m 0 min 0 min 0,0 UV-I 0 W/m 18,0 km/h (3 Bft)
31.01.2014 23:18 3,8 C 2,2 C 83 % 1001,7 hPa 0,0 l/m 0 min 0 min 0,0 UV-I 0 W/m 23,2 km/h (4 Bft)
31.01.2014 23:20 3,8 C 2,2 C 83 % 1001,7 hPa 0,0 l/m 0 min 0 min 0,0 UV-I 0 W/m 23,2 km/h (4 Bft)
31.01.2014 23:22 3,8 C 2,2 C 83 % 1001,7 hPa 0,0 l/m 0 min 0 min 0,0 UV-I 0 W/m 25,7 km/h (4 Bft)
31.01.2014 23:24 3,8 C 2,2 C 83 % 1001,7 hPa 0,0 l/m 0 min 0 min 0,0 UV-I 0 W/m 20,6 km/h (4 Bft)
31.01.2014 23:26 3,8 C 2,2 C 83 % 1001,7 hPa 0,0 l/m 0 min 0 min 0,0 UV-I 0 W/m 20,6 km/h (4 Bft)
31.01.2014 23:28 3,8 C 2,2 C 83 % 1001,7 hPa 0,0 l/m 0 min 0 min 0,0 UV-I 0 W/m 25,7 km/h (4 Bft)
31.01.2014 23:30 3,8 C 2,2 C 83 % 1001,6 hPa 0,0 l/m 0 min 0 min 0,0 UV-I 0 W/m 20,6 km/h (4 Bft)
31.01.2014 23:32 3,8 C 2,8 C 83 % 1001,7 hPa 0,0 l/m 0 min 0 min 0,0 UV-I 0 W/m 23,2 km/h (4 Bft)
31.01.2014 23:34 3,8 C 2,2 C 83 % 1001,6 hPa 0,0 l/m 0 min 0 min 0,0 UV-I 0 W/m 20,6 km/h (4 Bft)
31.01.2014 23:36 3,8 C 2,2 C 83 % 1001,5 hPa 0,0 l/m 0 min 0 min 0,0 UV-I 0 W/m 20,6 km/h (4 Bft)
31.01.2014 23:38 3,8 C 2,2 C 83 % 1001,6 hPa 0,0 l/m 0 min 0 min 0,0 UV-I 0 W/m 25,7 km/h (4 Bft)
31.01.2014 23:40 3,8 C 2,2 C 83 % 1001,6 hPa 0,0 l/m 0 min 0 min 0,0 UV-I 0 W/m 25,7 km/h (4 Bft)
31.01.2014 23:42 3,8 C 2,2 C 83 % 1001,6 hPa 0,0 l/m 0 min 0 min 0,0 UV-I 0 W/m 41,2 km/h (6 Bft)
31.01.2014 23:44 3,8 C 2,2 C 83 % 1001,5 hPa 0,0 l/m 0 min 0 min 0,0 UV-I 0 W/m 33,5 km/h (5 Bft)
31.01.2014 23:46 3,8 C 2,2 C 83 % 1001,5 hPa 0,0 l/m 0 min 0 min 0,0 UV-I 0 W/m 23,2 km/h (4 Bft)
31.01.2014 23:48 3,8 C 2,2 C 83 % 1001,4 hPa 0,0 l/m 0 min 0 min 0,0 UV-I 0 W/m 20,6 km/h (4 Bft)
31.01.2014 23:50 3,8 C 2,2 C 83 % 1001,5 hPa 0,0 l/m 0 min 0 min 0,0 UV-I 0 W/m 25,7 km/h (4 Bft)
31.01.2014 23:52 3,8 C 2,2 C 83 % 1001,4 hPa 0,0 l/m 0 min 0 min 0,0 UV-I 0 W/m 23,2 km/h (4 Bft)
31.01.2014 23:54 3,8 C 2,2 C 83 % 1001,4 hPa 0,0 l/m 0 min 0 min 0,0 UV-I 0 W/m 25,7 km/h (4 Bft)
31.01.2014 23:56 3,8 C 2,2 C 83 % 1001,3 hPa 0,0 l/m 0 min 0 min 0,0 UV-I 0 W/m 12,9 km/h (3 Bft)
31.01.2014 23:58 3,8 C 2,2 C 83 % 1001,2 hPa 0,0 l/m 0 min 0 min 0,0 UV-I 0 W/m 18,0 km/h (3 Bft)
_ Min-Zeit 07:32 07:14 13:54 23:58 - - - - - 00:00
Minimum _ -2,0 C -3,9 C 75 % 1001,2 hPa - - - - - 0,0 km/h (0 Bft)
_ Max-Zeit 15:18 14:30 07:50 09:02 00:00 09:48 00:00 00:00 12:56 23:42
Maximum _ 8,0 C 6,1 C 94 % 1008,2 hPa 0,0 l/m 2 min 0 min 0,0 UV-I 309 W/m 41,2 km/h
S (6 Bft)
Durchschnitt _ 2,7 C 1,0 C 85 % 1006,2 hPa #0,0 l/m #6:14 h #0 min. 0,0 UV-I 172 W/m 8,1 km/h (2 Bft)
© 2014 W. Hausmann